GFSNGP_prec_sndepth_000.txt.gz
Snowfall_Accumulation
0.0 0.0 0.0 0.0 0.0 0.0 0.0 0.0 1.5 0.1 0.0 0.0 0.0 0.0 0.0 0.0 0.0 0.0 0.0 0.0 0.0 0.0 0.0 0.0 0.0 0.0 0.0 0.0 0.0 0.0 0.0 0.0 0.0 0.0 0.0 0.0 0.0 0.0 0.0 0.0 0.0 0.0 0.0 0.0
0.2 0.0 0.0 0.2 0.0 0.0 0.0 0.0 0.0 0.0 0.0 0.0 0.0 0.0 0.0 0.0 0.0 0.0 0.0 0.0 0.0 0.0 0.0 0.0 0.0 0.0 0.0 0.0 0.0 0.0 0.0 0.0 0.0 0.0 0.0 0.0 0.0 0.0 0.0 0.0 0.0 0.0 0.0 0.0
3.1 0.0 0.4 5.4 0.2 0.0 0.0 0.0 0.0 0.6 0.0 0.0 0.0 0.0 0.0 0.0 0.0 0.0 0.0 0.0 0.0 0.0 0.0 0.0 0.0 0.0 0.0 0.0 0.0 0.0 0.0 0.0 0.0 0.0 0.0 0.0 0.0 0.0 0.0 0.0 0.0 0.0 0.0 0.0
7.1 3.8 11.1 0.1 0.0 0.0 0.0 0.0 0.0 0.0 0.0 0.0 0.0 0.0 0.0 0.0 0.0 0.0 0.0 0.0 0.0 0.0 0.0 0.0 0.0 0.0 0.0 0.0 0.0 0.0 0.0 0.0 0.0 0.0 0.0 0.0 0.0 0.0 0.0 0.0 0.0 0.0 0.0 0.0
12.0 2.7 0.2 0.0 0.0 0.1 0.1 0.1 0.0 0.0 0.0 0.0 0.0 0.0 0.0 0.0 0.0 0.0 0.0 0.0 0.0 0.0 0.0 0.0 0.0 0.0 0.0 0.0 0.0 0.0 0.0 0.0 0.0 0.0 0.0 0.0 0.0 0.0 0.1 0.0 0.0 0.0 0.0 0.0
6.1 8.7 12.7 0.2 0.0 0.0 0.0 1.0 0.0 0.0 0.0 0.0 0.0 1.2 0.0 0.0 0.0 0.0 0.0 0.0 0.0 0.0 0.0 0.0 0.0 0.0 0.0 0.0 0.0 0.0 0.0 0.0 0.0 0.0 0.0 0.0 0.0 0.0 0.0 0.0 0.0 0.0 0.1 0.0
6.5 10.2 3.2 0.0 0.0 0.0 3.5 0.5 0.2 0.0 0.0 0.0 0.0 0.2 0.0 0.0 0.0 0.0 0.0 0.0 0.0 0.0 0.0 0.0 0.0 0.0 0.0 0.0 0.0 0.0 0.0 0.0 0.0 0.0 0.0 0.0 0.0 0.0 0.0 0.0 0.3 1.9 3.4 1.6
6.3 9.2 9.7 0.0 0.0 1.8 0.8 0.0 0.0 0.0 0.0 0.0 0.0 0.0 0.0 0.0 0.0 0.0 0.0 0.0 0.0 0.0 0.0 0.0 0.0 0.0 0.0 0.0 0.0 0.0 0.0 0.0 0.0 0.0 0.0 0.0 0.0 0.0 0.0 0.2 0.9 2.1 9.7 4.5
0.4 3.1 0.0 0.0 0.0 0.0 0.0 0.0 0.0 0.0 0.0 0.0 0.0 0.0 0.0 0.0 0.0 0.0 0.0 0.0 0.0 0.0 0.0 0.0 0.0 0.0 0.0 0.0 0.0 0.0 0.0 0.0 0.0 0.0 0.0 0.0 0.0 0.0 0.0 0.1 1.7 3.3 2.5 5.0
0.9 0.0 0.0 0.0 0.0 0.0 0.0 0.0 0.0 0.0 0.0 0.0 0.0 0.0 0.0 0.0 0.0 0.0 0.0 0.0 0.0 0.0 0.0 0.0 0.0 0.0 0.0 0.0 0.0 0.0 0.0 0.0 0.0 0.0 0.0 0.0 0.0 0.0 0.0 1.7 2.8 2.7 3.6 2.9
0.2 0.0 0.0 0.0 0.0 0.0 0.0 0.0 0.0 0.0 0.0 0.0 0.0 0.0 0.0 0.0 0.0 0.0 0.0 0.0 0.0 0.0 0.0 0.0 0.0 0.1 0.0 0.1 0.0 0.0 0.0 0.0 0.2 0.4 0.1 0.0 0.0 0.0 1.6 1.0 2.7 3.7 3.0 3.5
1.9 0.0 0.0 0.0 0.0 0.0 0.0 0.0 0.0 0.0 0.0 0.0 0.0 0.0 0.0 0.0 0.0 0.0 0.0 0.0 0.0 0.0 0.0 0.0 0.1 0.2 0.1 0.1 0.1 0.2 0.2 0.4 1.5 1.9 1.5 0.0 0.0 0.0 nan nan nan nan nan 7.4
0.0 0.0 0.0 0.0 0.0 0.0 0.0 0.0 0.0 0.0 0.0 0.0 0.0 0.0 0.0 0.0 0.0 nan 0.0 0.0 0.0 0.0 0.0 0.1 0.2 0.2 0.2 0.5 0.9 2.0 1.0 1.1 2.0 2.0 1.9 2.1 2.4 2.4 3.9 2.8 nan nan nan nan
0.0 0.0 0.0 0.0 0.0 0.0 0.0 0.0 0.0 0.0 0.0 0.0 0.0 0.0 0.0 0.0 0.0 0.0 0.0 0.0 0.0 0.0 0.0 0.2 0.2 0.2 0.2 0.2 1.0 2.2 1.7 1.2 2.5 2.2 2.1 2.9 4.6 4.9 5.3 6.9 10.3 9.1 nan nan
0.0 0.0 0.0 0.0 0.0 0.0 0.0 0.0 0.0 0.0 0.0 0.0 0.0 0.0 0.0 0.0 0.0 0.0 0.0 0.0 0.0 0.0 0.0 0.0 0.0 0.0 0.1 0.3 0.5 0.5 1.0 1.9 4.9 6.6 6.2 6.1 6.9 7.0 6.6 7.6 8.1 6.8 5.9 2.6
0.0 0.0 0.0 0.0 0.0 0.0 0.0 0.0 0.0 0.0 0.0 0.0 0.0 0.1 0.0 0.0 0.0 0.0 0.0 0.0 1.1 1.3 0.6 7.5 3.1 0.7 0.3 0.2 0.2 0.3 0.7 0.3 2.7 4.8 5.8 6.0 5.4 6.4 6.2 7.5 7.3 7.7 7.0 7.0
0.2 0.2 0.0 0.0 0.0 0.0 0.0 0.0 0.0 0.0 0.0 0.0 0.5 0.8 0.1 1.6 1.5 1.2 0.9 1.9 5.2 5.8 4.8 3.8 2.2 0.0 0.4 0.2 0.3 1.0 1.2 1.8 1.1 3.6 4.1 4.9 6.4 6.9 7.2 8.8 9.1 8.2 13.5 21.4
0.0 0.0 0.0 0.0 0.0 0.0 0.2 0.3 0.6 0.6 0.4 0.4 3.0 6.2 7.0 6.3 2.1 2.6 3.6 4.1 5.6 5.4 3.1 2.5 1.6 0.5 1.0 0.3 0.8 1.3 2.9 3.3 4.7 6.3 5.8 8.9 6.4 6.2 9.1 8.5 8.5 9.6 12.4 12.6
0.0 0.0 0.0 0.0 0.1 0.2 0.3 0.4 1.1 1.3 4.3 4.3 7.0 5.7 5.8 6.0 2.6 2.3 3.0 8.7 9.7 3.9 2.1 2.7 0.0 1.2 0.8 0.8 1.2 2.9 5.2 9.3 5.6 3.7 5.6 8.0 13.7 6.7 11.3 14.6 12.4 16.1 10.6 10.8
0.0 0.0 0.0 0.0 0.0 0.6 1.8 1.4 2.9 1.9 1.1 2.6 7.0 8.4 4.8 7.4 8.8 10.1 6.0 4.3 2.8 2.6 2.2 2.0 1.8 2.2 2.2 1.2 2.8 2.9 6.7 12.3 6.5 12.1 15.9 8.4 19.6 25.4 18.1 8.6 13.0 17.4 29.3 23.1
0.2 0.2 1.3 1.7 1.8 3.2 4.5 5.2 4.0 1.7 2.0 6.3 9.4 10.2 9.4 6.7 8.4 11.2 7.1 2.9 2.2 4.0 2.1 1.9 2.4 2.1 0.9 1.0 1.0 9.5 15.0 19.1 19.0 13.4 13.2 25.0 30.6 23.8 25.2 29.2 27.1 31.3 34.5 28.0
0.2 1.8 4.0 3.0 2.1 1.6 2.2 2.0 1.8 4.7 4.8 8.1 13.4 16.7 11.9 4.2 7.0 7.2 9.7 4.4 2.5 4.0 3.5 4.2 2.7 5.0 3.8 6.9 5.4 18.3 9.9 11.3 14.5 14.8 15.2 22.5 23.4 32.6 33.8 30.3 28.7 34.1 34.6 35.8
0.4 0.5 1.5 2.9 3.2 1.0 1.8 2.8 6.2 6.7 10.1 9.2 11.0 7.5 5.9 3.2 3.8 6.3 6.3 2.2 3.0 6.5 3.9 9.2 7.0 7.2 7.5 21.9 20.9 22.1 20.9 20.1 19.7 17.4 18.3 26.0 24.8 40.5 23.3 23.4 27.3 28.5 38.4 27.0
0.4 0.9 0.7 1.6 2.4 2.2 2.9 0.9 1.3 2.6 8.8 5.6 6.9 9.9 5.0 10.0 16.2 4.1 4.2 7.1 7.4 26.5 24.2 16.2 16.1 7.6 8.1 24.6 22.9 24.9 22.6 25.3 25.4 28.0 13.6 9.8 36.2 28.3 22.4 32.1 19.8 27.6 29.2 23.8
1.6 0.9 1.0 3.0 1.9 1.5 0.7 0.9 1.4 2.0 2.3 2.2 2.1 2.1 3.2 3.8 11.5 7.8 12.2 11.5 8.2 9.1 15.8 8.6 7.4 8.1 29.0 29.1 26.3 25.6 25.5 23.3 26.3 30.5 21.4 28.6 25.6 40.0 35.4 26.3 29.8 32.4 31.9 29.2
0.7 1.1 0.9 0.6 0.9 0.8 1.2 1.7 2.9 3.4 3.4 9.0 6.0 18.2 14.3 8.8 7.8 7.5 10.4 9.1 8.3 8.1 10.4 22.7 31.6 32.6 29.8 21.0 23.2 22.9 18.4 12.7 20.3 18.9 21.7 19.9 19.5 16.6 21.7 20.2 27.4 34.4 42.9 47.2
1.7 0.9 2.1 1.8 1.4 2.4 2.6 2.6 5.9 6.5 7.6 14.3 11.8 13.8 7.9 13.2 15.9 9.3 10.3 18.8 19.4 20.2 20.5 25.2 22.9 14.8 15.0 23.9 19.2 17.7 18.2 18.1 12.5 14.1 25.3 29.3 27.1 37.8 33.5 34.2 39.0 43.2 36.6 31.4

GFSNGP_prec_sndepth_003.txt.gz
Snowfall_Accumulation
0.0 0.0 0.0 0.0 0.0 0.0 0.0 0.0 1.5 0.1 0.0 0.0 0.0 0.0 0.0 0.0 0.0 0.0 0.0 0.0 0.0 0.0 0.0 0.0 0.0 0.0 0.0 0.0 0.0 0.0 0.0 0.0 0.0 0.0 0.0 0.0 0.0 0.0 0.0 0.0 0.0 0.0 0.0 0.0
0.2 0.0 0.0 0.2 0.0 0.0 0.0 0.0 0.0 0.0 0.0 0.0 0.0 0.0 0.0 0.0 0.0 0.0 0.0 0.0 0.0 0.0 0.0 0.0 0.0 0.0 0.0 0.0 0.0 0.0 0.0 0.0 0.0 0.0 0.0 0.0 0.0 0.0 0.0 0.0 0.0 0.0 0.0 0.0
3.1 0.0 0.4 5.4 0.2 0.0 0.0 0.0 0.0 0.6 0.0 0.0 0.0 0.0 0.0 0.0 0.0 0.0 0.0 0.0 0.0 0.0 0.0 0.0 0.0 0.0 0.0 0.0 0.0 0.0 0.0 0.0 0.0 0.0 0.0 0.0 0.0 0.0 0.0 0.0 0.0 0.0 0.0 0.0
7.1 3.8 11.2 0.1 0.0 0.0 0.0 0.0 0.0 0.0 0.0 0.0 0.0 0.0 0.0 0.0 0.0 0.0 0.0 0.0 0.0 0.0 0.0 0.0 0.0 0.0 0.0 0.0 0.0 0.0 0.0 0.0 0.0 0.0 0.0 0.0 0.0 0.0 0.0 0.0 0.0 0.0 0.0 0.0
11.9 2.7 0.3 0.0 0.0 0.1 0.1 0.1 0.0 0.0 0.0 0.0 0.0 0.0 0.0 0.0 0.0 0.0 0.0 0.0 0.0 0.0 0.0 0.0 0.0 0.0 0.0 0.0 0.0 0.0 0.0 0.0 0.0 0.0 0.0 0.0 0.0 0.0 0.1 0.0 0.0 0.0 0.0 0.0
6.1 8.7 12.8 0.2 0.0 0.0 0.0 1.1 0.0 0.0 0.0 0.0 0.0 1.1 0.0 0.0 0.0 0.0 0.0 0.0 0.0 0.0 0.0 0.0 0.0 0.0 0.0 0.0 0.0 0.0 0.0 0.0 0.0 0.0 0.0 0.0 0.0 0.0 0.0 0.0 0.0 0.0 0.1 0.0
6.5 10.1 3.3 0.0 0.0 0.0 3.6 0.5 0.2 0.0 0.0 0.0 0.0 0.2 0.0 0.0 0.0 0.0 0.0 0.0 0.0 0.0 0.0 0.0 0.0 0.0 0.0 0.0 0.0 0.0 0.0 0.0 0.0 0.0 0.0 0.0 0.0 0.0 0.0 0.0 0.3 1.9 3.4 1.6
6.3 9.2 9.8 0.0 0.0 1.8 0.7 0.0 0.0 0.0 0.0 0.0 0.0 0.0 0.0 0.0 0.0 0.0 0.0 0.0 0.0 0.0 0.0 0.0 0.0 0.0 0.0 0.0 0.0 0.0 0.0 0.0 0.0 0.0 0.0 0.0 0.0 0.0 0.0 0.2 0.9 2.1 9.7 4.5
0.4 3.1 0.0 0.0 0.0 0.0 0.0 0.0 0.0 0.0 0.0 0.0 0.0 0.0 0.0 0.0 0.0 0.0 0.0 0.0 0.0 0.0 0.0 0.0 0.0 0.0 0.0 0.0 0.0 0.0 0.0 0.0 0.0 0.0 0.0 0.0 0.0 0.0 0.0 0.1 1.7 3.3 2.5 5.0
0.8 0.0 0.0 0.0 0.0 0.0 0.0 0.0 0.0 0.0 0.0 0.0 0.0 0.0 0.0 0.0 0.0 0.0 0.0 0.0 0.0 0.0 0.0 0.0 0.0 0.0 0.0 0.0 0.0 0.0 0.0 0.0 0.0 0.0 0.0 0.0 0.0 0.0 0.0 1.7 2.8 2.7 3.6 2.9
0.2 0.0 0.0 0.0 0.0 0.0 0.0 0.0 0.0 0.0 0.0 0.0 0.0 0.0 0.0 0.0 0.0 0.0 0.0 0.0 0.0 0.0 0.0 0.0 0.0 0.1 0.0 0.1 0.0 0.0 0.0 0.0 0.2 0.4 0.1 0.0 0.0 0.0 1.6 1.0 2.7 3.7 3.0 3.6
1.7 0.0 0.0 0.0 0.0 0.0 0.0 0.0 0.0 0.0 0.0 0.0 0.0 0.0 0.0 0.0 0.0 0.0 0.0 0.0 0.0 0.0 0.0 0.0 0.1 0.2 0.1 0.1 0.1 0.2 0.2 0.4 1.5 1.9 1.5 0.0 0.0 0.0 nan nan nan nan nan 7.4
0.0 0.0 0.0 0.0 0.0 0.0 0.0 0.0 0.0 0.0 0.0 0.0 0.0 0.0 0.0 0.0 0.0 nan 0.0 0.0 0.0 0.0 0.0 0.1 0.2 0.2 0.2 0.5 0.9 2.0 1.0 1.1 2.0 2.0 1.9 2.1 2.4 2.4 4.0 2.8 nan nan nan nan
0.0 0.0 0.0 0.0 0.0 0.0 0.0 0.0 0.0 0.0 0.0 0.0 0.0 0.0 0.0 0.0 0.0 0.0 0.0 0.0 0.0 0.0 0.0 0.2 0.2 0.2 0.2 0.2 1.0 2.3 1.7 1.2 2.5 2.2 2.1 2.9 4.6 4.9 5.3 6.9 10.3 9.1 nan nan
0.0 0.0 0.0 0.0 0.0 0.0 0.0 0.0 0.0 0.0 0.0 0.0 0.0 0.0 0.0 0.0 0.0 0.0 0.0 0.0 0.0 0.0 0.0 0.0 0.0 0.0 0.1 0.3 0.5 0.5 1.0 1.9 4.9 6.6 6.2 6.1 6.9 7.0 6.6 7.6 8.1 6.8 5.9 2.6
0.0 0.0 0.0 0.0 0.0 0.0 0.0 0.0 0.0 0.0 0.0 0.0 0.0 0.2 0.0 0.0 0.0 0.0 0.0 0.0 1.1 1.3 0.6 7.5 3.2 0.7 0.3 0.2 0.2 0.3 0.7 0.3 2.7 4.8 5.8 6.0 5.4 6.4 6.2 7.5 7.3 7.8 7.0 7.0
0.2 0.2 0.0 0.0 0.0 0.0 0.0 0.0 0.0 0.0 0.0 0.0 0.6 0.8 0.1 1.6 1.5 1.2 0.9 1.9 5.2 5.8 4.8 3.8 2.2 0.0 0.4 0.2 0.3 1.0 1.2 1.8 1.1 3.6 4.1 4.9 6.4 6.9 7.2 8.8 9.1 8.3 13.5 21.3
0.0 0.0 0.0 0.0 0.0 0.0 0.2 0.3 0.6 0.6 0.4 0.4 3.0 6.2 7.0 6.3 2.1 2.6 3.6 4.1 5.6 5.4 3.1 2.5 1.6 0.5 1.0 0.3 0.8 1.3 2.9 3.3 4.7 6.3 5.8 8.9 6.4 6.2 9.1 8.5 8.5 9.6 12.4 12.6
0.0 0.0 0.0 0.0 0.1 0.2 0.3 0.4 1.2 1.3 4.4 4.3 7.0 5.7 5.8 6.0 2.6 2.3 3.0 8.7 9.7 3.9 2.1 2.7 0.0 1.2 0.8 0.8 1.2 2.9 5.2 9.3 5.6 3.7 5.6 8.0 13.6 6.7 11.3 14.6 12.4 16.0 10.6 10.8
0.0 0.0 0.0 0.0 0.0 0.6 1.8 1.4 3.0 1.9 1.1 2.6 7.0 8.4 4.9 7.4 8.7 10.1 6.0 4.3 2.8 2.6 2.2 2.0 1.8 2.2 2.2 1.2 2.8 3.0 6.7 12.3 6.5 12.1 15.8 8.4 19.5 25.3 18.0 8.6 13.0 17.4 29.1 23.1
0.2 0.2 1.3 1.7 1.8 3.2 4.5 5.2 4.0 1.7 2.0 6.3 9.4 10.2 9.4 6.6 8.4 11.2 7.1 2.9 2.2 4.0 2.1 1.9 2.4 2.1 0.9 1.0 1.1 9.5 15.0 19.0 18.9 13.4 13.2 24.9 30.5 23.7 25.1 29.0 27.0 31.1 34.3 27.9
0.2 1.8 4.0 3.0 2.1 1.6 2.2 2.0 1.8 4.7 4.8 8.1 13.4 16.7 11.9 4.2 7.0 7.2 9.7 4.4 2.5 4.0 3.5 4.2 2.7 5.0 3.8 6.9 5.4 18.2 10.0 11.3 14.5 14.8 15.3 22.4 23.3 32.4 33.6 30.2 28.6 33.9 34.4 35.5
0.4 0.5 1.5 2.9 3.2 1.0 1.8 2.8 6.0 6.7 10.0 9.2 11.1 7.7 6.1 3.3 3.8 6.3 6.3 2.2 3.0 6.5 3.9 9.2 7.0 7.2 7.5 21.7 20.9 22.0 20.8 20.1 19.6 17.4 18.3 26.0 24.7 40.2 23.2 23.3 27.1 28.4 38.1 26.8
0.4 0.9 0.7 1.6 2.4 2.3 2.9 0.9 1.3 2.6 8.8 5.7 7.1 10.2 5.1 10.0 16.2 4.1 4.2 7.1 7.4 26.3 24.1 16.1 16.0 7.6 8.1 24.4 22.8 24.8 22.6 25.2 25.3 27.9 13.6 9.8 36.0 28.1 22.4 32.0 19.8 27.4 29.1 23.7
1.6 0.9 1.0 3.0 1.9 1.5 0.7 0.9 1.4 2.0 2.3 2.3 2.3 2.2 3.2 3.9 11.5 7.8 12.2 11.5 8.2 9.1 15.7 8.6 7.4 8.1 28.8 28.9 26.1 25.4 25.3 23.2 26.2 30.3 21.4 28.5 25.6 39.8 35.2 26.2 29.6 32.2 31.7 29.0
0.7 1.1 0.9 0.6 0.9 0.8 1.2 1.7 3.0 3.5 3.5 9.1 6.1 18.2 14.3 8.8 7.8 7.4 10.3 9.1 8.2 8.1 10.4 22.6 31.4 32.4 29.6 21.0 23.2 22.8 18.3 12.7 20.3 18.9 21.7 19.8 19.5 16.6 21.6 20.1 27.3 34.2 42.5 46.8
1.7 0.9 2.1 1.8 1.4 2.4 2.6 2.7 6.1 6.5 7.6 14.3 11.8 13.7 7.9 13.1 15.8 9.3 10.3 18.7 19.3 20.1 20.5 25.0 22.8 14.8 14.9 23.8 19.2 17.7 18.2 18.1 12.5 14.1 25.2 29.1 27.0 37.5 33.3 34.0 38.7 42.8 36.4 31.2

GFSNGP_prec_sndepth_006.txt.gz
Snowfall_Accumulation
0.0 0.0 0.0 0.0 0.0 0.0 0.0 0.0 1.5 0.1 0.0 0.0 0.0 0.0 0.0 0.0 0.0 0.0 0.0 0.0 0.0 0.0 0.0 0.0 0.0 0.0 0.0 0.0 0.0 0.0 0.0 0.0 0.0 0.0 0.0 0.0 0.0 0.0 0.0 0.0 0.0 0.0 0.0 0.0
0.2 0.0 0.0 0.2 0.0 0.0 0.0 0.0 0.0 0.0 0.0 0.0 0.0 0.0 0.0 0.0 0.0 0.0 0.0 0.0 0.0 0.0 0.0 0.0 0.0 0.0 0.0 0.0 0.0 0.0 0.0 0.0 0.0 0.0 0.0 0.0 0.0 0.0 0.0 0.0 0.0 0.0 0.0 0.0
3.1 0.0 0.4 5.4 0.2 0.0 0.0 0.0 0.0 0.6 0.0 0.0 0.0 0.0 0.0 0.0 0.0 0.0 0.0 0.0 0.0 0.0 0.0 0.0 0.0 0.0 0.0 0.0 0.0 0.0 0.0 0.0 0.0 0.0 0.0 0.0 0.0 0.0 0.0 0.0 0.0 0.0 0.0 0.0
7.1 3.8 11.3 0.1 0.0 0.0 0.0 0.0 0.0 0.0 0.0 0.0 0.0 0.0 0.0 0.0 0.0 0.0 0.0 0.0 0.0 0.0 0.0 0.0 0.0 0.0 0.0 0.0 0.0 0.0 0.0 0.0 0.0 0.0 0.0 0.0 0.0 0.0 0.0 0.0 0.0 0.0 0.0 0.0
11.9 2.7 0.3 0.0 0.0 0.1 0.2 0.1 0.0 0.0 0.0 0.0 0.0 0.0 0.0 0.0 0.0 0.0 0.0 0.0 0.0 0.0 0.0 0.0 0.0 0.0 0.0 0.0 0.0 0.0 0.0 0.0 0.0 0.0 0.0 0.0 0.0 0.0 0.1 0.0 0.0 0.0 0.0 0.0
6.1 8.7 12.8 0.2 0.0 0.0 0.0 1.1 0.0 0.0 0.0 0.0 0.0 1.0 0.0 0.0 0.0 0.0 0.0 0.0 0.0 0.0 0.0 0.0 0.0 0.0 0.0 0.0 0.0 0.0 0.0 0.0 0.0 0.0 0.0 0.0 0.0 0.0 0.0 0.0 0.0 0.0 0.1 0.0
6.5 10.2 3.3 0.0 0.0 0.0 3.6 0.5 0.1 0.0 0.0 0.0 0.0 0.2 0.0 0.0 0.0 0.0 0.0 0.0 0.0 0.0 0.0 0.0 0.0 0.0 0.0 0.0 0.0 0.0 0.0 0.0 0.0 0.0 0.0 0.0 0.0 0.0 0.0 0.0 0.3 1.9 3.4 1.6
6.4 9.3 9.8 0.0 0.0 1.7 0.7 0.0 0.0 0.0 0.0 0.0 0.0 0.0 0.0 0.0 0.0 0.0 0.0 0.0 0.0 0.0 0.0 0.0 0.0 0.0 0.0 0.0 0.0 0.0 0.0 0.0 0.0 0.0 0.0 0.0 0.0 0.0 0.0 0.2 0.8 2.1 9.7 4.5
0.4 3.1 0.0 0.0 0.0 0.0 0.0 0.0 0.0 0.0 0.0 0.0 0.0 0.0 0.0 0.0 0.0 0.0 0.0 0.0 0.0 0.0 0.0 0.0 0.0 0.0 0.0 0.0 0.0 0.0 0.0 0.0 0.0 0.0 0.0 0.0 0.0 0.0 0.0 0.1 1.7 3.3 2.5 5.0
0.8 0.0 0.0 0.0 0.0 0.0 0.0 0.0 0.0 0.0 0.0 0.0 0.0 0.0 0.0 0.0 0.0 0.0 0.0 0.0 0.0 0.0 0.0 0.0 0.0 0.0 0.0 0.0 0.0 0.0 0.0 0.0 0.0 0.0 0.0 0.0 0.0 0.0 0.0 1.7 2.8 2.7 3.6 2.9
0.2 0.0 0.0 0.0 0.0 0.0 0.0 0.0 0.0 0.0 0.0 0.0 0.0 0.0 0.0 0.0 0.0 0.0 0.0 0.0 0.0 0.0 0.0 0.0 0.0 0.1 0.0 0.1 0.0 0.0 0.0 0.0 0.1 0.4 0.1 0.0 0.0 0.0 1.6 1.0 2.7 3.7 3.0 3.7
1.5 0.0 0.0 0.0 0.0 0.0 0.0 0.0 0.0 0.0 0.0 0.0 0.0 0.0 0.0 0.0 0.0 0.0 0.0 0.0 0.0 0.0 0.0 0.0 0.1 0.1 0.1 0.1 0.1 0.2 0.2 0.4 1.5 1.9 1.6 0.0 0.0 0.0 nan nan nan nan nan 7.4
0.0 0.0 0.0 0.0 0.0 0.0 0.0 0.0 0.0 0.0 0.0 0.0 0.0 0.0 0.0 0.0 0.0 nan 0.0 0.0 0.0 0.0 0.0 0.1 0.2 0.2 0.2 0.5 0.9 2.0 1.0 1.1 2.0 2.0 1.9 2.1 2.4 2.4 4.0 2.8 nan nan nan nan
0.0 0.0 0.0 0.0 0.0 0.0 0.0 0.0 0.0 0.0 0.0 0.0 0.0 0.0 0.0 0.0 0.0 0.0 0.0 0.0 0.0 0.0 0.0 0.2 0.2 0.2 0.2 0.2 1.0 2.3 1.7 1.2 2.5 2.2 2.1 3.0 4.6 4.9 5.3 6.9 10.3 9.1 nan nan
0.0 0.0 0.0 0.0 0.0 0.0 0.0 0.0 0.0 0.0 0.0 0.0 0.0 0.0 0.0 0.0 0.0 0.0 0.0 0.0 0.0 0.0 0.0 0.0 0.0 0.0 0.1 0.3 0.5 0.5 1.0 1.9 4.9 6.6 6.2 6.1 6.9 7.0 6.6 7.6 8.1 6.8 5.9 2.6
0.0 0.0 0.0 0.0 0.0 0.0 0.0 0.0 0.0 0.0 0.0 0.0 0.0 0.2 0.0 0.0 0.0 0.0 0.0 0.0 1.1 1.3 0.6 7.5 3.2 0.7 0.3 0.2 0.2 0.3 0.7 0.3 2.7 4.8 5.8 6.0 5.4 6.4 6.2 7.5 7.3 7.7 7.0 7.1
0.2 0.2 0.0 0.0 0.0 0.0 0.0 0.0 0.0 0.0 0.0 0.0 0.6 0.9 0.1 1.7 1.5 1.3 0.9 1.9 5.2 5.8 4.8 3.8 2.2 0.0 0.4 0.2 0.3 1.0 1.2 1.8 1.1 3.6 4.1 4.9 6.4 6.9 7.2 8.8 9.1 8.3 13.5 21.3
0.0 0.0 0.0 0.0 0.0 0.0 0.2 0.3 0.6 0.6 0.4 0.4 3.1 6.2 7.0 6.3 2.2 2.6 3.6 4.1 5.6 5.4 3.1 2.5 1.6 0.5 1.0 0.3 0.8 1.3 2.9 3.3 4.7 6.3 5.8 8.9 6.4 6.2 9.1 8.5 8.5 9.6 12.4 12.5
0.0 0.0 0.0 0.0 0.1 0.2 0.3 0.4 1.2 1.3 4.4 4.3 7.0 5.6 5.8 6.0 2.6 2.3 3.0 8.7 9.7 3.9 2.1 2.7 0.0 1.2 0.8 0.8 1.2 2.9 5.2 9.3 5.6 3.7 5.6 8.0 13.6 6.7 11.3 14.5 12.4 16.0 10.6 10.8
0.0 0.0 0.0 0.0 0.0 0.6 1.8 1.4 3.0 1.9 1.1 2.6 6.9 8.4 4.9 7.4 8.8 10.2 6.1 4.4 2.8 2.6 2.2 2.0 1.8 2.2 2.2 1.2 2.8 3.1 6.8 12.3 6.5 12.1 15.8 8.4 19.5 25.2 18.0 8.6 13.0 17.3 29.0 23.0
0.2 0.2 1.3 1.7 1.8 3.2 4.5 5.2 4.0 1.7 2.0 6.3 9.3 10.2 9.4 6.7 8.5 11.2 7.2 2.9 2.2 4.0 2.1 1.9 2.4 2.1 0.9 1.0 1.1 9.5 15.0 19.0 18.8 13.4 13.2 24.9 30.4 23.6 25.0 28.9 26.9 31.0 34.1 27.8
0.2 1.8 4.1 3.1 2.1 1.6 2.3 2.0 1.8 4.7 4.8 8.0 13.4 16.6 12.0 4.3 7.2 7.3 9.7 4.4 2.5 4.0 3.5 4.2 2.7 5.0 3.8 6.9 5.4 18.2 10.0 11.3 14.5 14.9 15.3 22.4 23.3 32.3 33.4 30.0 28.5 33.7 34.2 35.3
0.4 0.5 1.5 3.0 3.2 1.0 1.8 2.8 6.0 6.7 10.0 9.2 11.1 7.7 6.2 3.4 3.9 6.3 6.3 2.2 3.0 6.5 3.9 9.2 7.0 7.2 7.5 21.6 20.8 22.0 20.8 20.0 19.6 17.4 18.3 25.9 24.7 39.9 23.1 23.2 27.0 28.3 37.9 26.7
0.4 0.9 0.7 1.6 2.4 2.3 3.0 0.9 1.3 2.6 8.8 5.7 7.1 10.3 5.2 10.0 16.1 4.1 4.2 7.1 7.4 26.2 24.0 16.1 15.9 7.6 8.1 24.3 22.7 24.6 22.5 25.0 25.2 27.8 13.6 9.8 35.9 28.0 22.3 31.8 19.7 27.3 29.0 23.6
1.7 0.9 1.0 3.0 1.9 1.5 0.7 0.9 1.5 2.0 2.3 2.5 2.4 2.3 3.2 3.9 11.5 7.8 12.2 11.5 8.2 9.1 15.7 8.6 7.4 8.1 28.7 28.7 26.0 25.3 25.2 23.0 26.0 30.1 21.3 28.4 25.5 39.5 35.0 26.1 29.5 32.1 31.6 28.9
0.7 1.1 0.9 0.6 0.9 0.8 1.2 1.7 3.0 3.5 3.5 9.1 6.1 18.1 14.3 8.8 7.8 7.4 10.3 9.1 8.2 8.1 10.4 22.5 31.1 32.1 29.5 21.0 23.2 22.8 18.3 12.7 20.2 18.8 21.6 19.8 19.5 16.6 21.6 20.1 27.2 34.0 42.2 46.4
1.7 0.9 2.1 1.8 1.4 2.4 2.6 2.7 6.1 6.6 7.4 14.3 11.8 13.7 7.9 13.1 15.8 9.3 10.3 18.6 19.2 20.1 20.4 24.9 22.7 14.7 14.9 23.7 19.1 17.6 18.1 18.1 12.5 14.2 25.1 29.0 26.9 37.2 33.1 33.8 38.5 42.5 36.2 31.0

GFSNGP_prec_sndepth_009.txt.gz
Snowfall_Accumulation
0.0 0.0 0.0 0.0 0.0 0.0 0.0 0.0 1.4 0.1 0.0 0.0 0.0 0.0 0.0 0.0 0.0 0.0 0.0 0.0 0.0 0.0 0.0 0.0 0.0 0.0 0.0 0.0 0.0 0.0 0.0 0.0 0.0 0.0 0.0 0.0 0.0 0.0 0.0 0.0 0.0 0.0 0.0 0.0
0.2 0.0 0.0 0.2 0.0 0.0 0.0 0.0 0.0 0.0 0.0 0.0 0.0 0.0 0.0 0.0 0.0 0.0 0.0 0.0 0.0 0.0 0.0 0.0 0.0 0.0 0.0 0.0 0.0 0.0 0.0 0.0 0.0 0.0 0.0 0.0 0.0 0.0 0.0 0.0 0.0 0.0 0.0 0.0
3.1 0.0 0.4 5.4 0.2 0.0 0.0 0.0 0.0 0.5 0.0 0.0 0.0 0.0 0.0 0.0 0.0 0.0 0.0 0.0 0.0 0.0 0.0 0.0 0.0 0.0 0.0 0.0 0.0 0.0 0.0 0.0 0.0 0.0 0.0 0.0 0.0 0.0 0.0 0.0 0.0 0.0 0.0 0.0
7.0 3.7 11.3 0.1 0.0 0.0 0.0 0.0 0.0 0.0 0.0 0.0 0.0 0.0 0.0 0.0 0.0 0.0 0.0 0.0 0.0 0.0 0.0 0.0 0.0 0.0 0.0 0.0 0.0 0.0 0.0 0.0 0.0 0.0 0.0 0.0 0.0 0.0 0.0 0.0 0.0 0.0 0.0 0.0
11.8 2.7 0.2 0.0 0.0 0.1 0.1 0.1 0.0 0.0 0.0 0.0 0.0 0.0 0.0 0.0 0.0 0.0 0.0 0.0 0.0 0.0 0.0 0.0 0.0 0.0 0.0 0.0 0.0 0.0 0.0 0.0 0.0 0.0 0.0 0.0 0.0 0.0 0.1 0.0 0.0 0.0 0.0 0.0
5.9 9.0 13.0 0.2 0.0 0.0 0.0 1.0 0.0 0.0 0.0 0.0 0.0 0.9 0.0 0.0 0.0 0.0 0.0 0.0 0.0 0.0 0.0 0.0 0.0 0.0 0.0 0.0 0.0 0.0 0.0 0.0 0.0 0.0 0.0 0.0 0.0 0.0 0.0 0.0 0.0 0.0 0.1 0.0
6.4 10.2 3.2 0.0 0.0 0.0 3.7 0.5 0.1 0.0 0.0 0.0 0.0 0.2 0.0 0.0 0.0 0.0 0.0 0.0 0.0 0.0 0.0 0.0 0.0 0.0 0.0 0.0 0.0 0.0 0.0 0.0 0.0 0.0 0.0 0.0 0.0 0.0 0.0 0.0 0.3 1.8 3.3 1.5
6.4 9.2 9.8 0.0 0.0 1.6 0.7 0.0 0.0 0.0 0.0 0.0 0.0 0.0 0.0 0.0 0.0 0.0 0.0 0.0 0.0 0.0 0.0 0.0 0.0 0.0 0.0 0.0 0.0 0.0 0.0 0.0 0.0 0.0 0.0 0.0 0.0 0.0 0.0 0.2 0.8 2.1 9.6 4.4
0.4 3.0 0.0 0.0 0.0 0.0 0.0 0.0 0.0 0.0 0.0 0.0 0.0 0.0 0.0 0.0 0.0 0.0 0.0 0.0 0.0 0.0 0.0 0.0 0.0 0.0 0.0 0.0 0.0 0.0 0.0 0.0 0.0 0.0 0.0 0.0 0.0 0.0 0.0 0.1 1.6 3.3 2.5 4.9
0.7 0.0 0.0 0.0 0.0 0.0 0.0 0.0 0.0 0.0 0.0 0.0 0.0 0.0 0.0 0.0 0.0 0.0 0.0 0.0 0.0 0.0 0.0 0.0 0.0 0.0 0.0 0.0 0.0 0.0 0.0 0.0 0.0 0.0 0.0 0.0 0.0 0.0 0.0 1.6 2.7 2.7 3.6 2.9
0.2 0.0 0.0 0.0 0.0 0.0 0.0 0.0 0.0 0.0 0.0 0.0 0.0 0.0 0.0 0.0 0.0 0.0 0.0 0.0 0.0 0.0 0.0 0.0 0.0 0.1 0.0 0.0 0.0 0.0 0.0 0.0 0.1 0.4 0.1 0.0 0.0 0.0 1.5 0.9 2.6 3.6 3.0 3.7
1.3 0.0 0.0 0.0 0.0 0.0 0.0 0.0 0.0 0.0 0.0 0.0 0.0 0.0 0.0 0.0 0.0 0.0 0.0 0.0 0.0 0.0 0.0 0.0 0.1 0.1 0.1 0.1 0.1 0.2 0.1 0.4 1.4 1.8 1.5 0.0 0.0 0.0 nan nan nan nan nan 7.3
0.0 0.0 0.0 0.0 0.0 0.0 0.0 0.0 0.0 0.0 0.0 0.0 0.0 0.0 0.0 0.0 0.0 nan 0.0 0.0 0.0 0.0 0.0 0.1 0.1 0.2 0.1 0.4 0.8 2.0 1.0 1.0 1.9 1.9 1.8 2.0 2.3 2.4 3.9 2.7 nan nan nan nan
0.0 0.0 0.0 0.0 0.0 0.0 0.0 0.0 0.0 0.0 0.0 0.0 0.0 0.0 0.0 0.0 0.0 0.0 0.0 0.0 0.0 0.0 0.0 0.2 0.2 0.2 0.2 0.2 1.0 2.3 1.6 1.2 2.4 2.1 2.0 2.9 4.6 4.8 5.3 6.9 10.2 9.1 nan nan
0.0 0.0 0.0 0.0 0.0 0.0 0.0 0.0 0.0 0.0 0.0 0.0 0.0 0.0 0.0 0.0 0.0 0.0 0.0 0.0 0.0 0.0 0.0 0.0 0.0 0.0 0.1 0.2 0.5 0.5 1.0 1.8 4.7 6.5 6.1 6.0 6.8 7.0 6.5 7.6 8.0 6.8 5.8 2.5
0.0 0.0 0.0 0.0 0.0 0.0 0.0 0.0 0.0 0.0 0.0 0.0 0.0 0.1 0.0 0.0 0.0 0.0 0.0 0.0 1.0 1.3 0.6 7.5 3.1 0.7 0.3 0.2 0.2 0.3 0.7 0.3 2.7 4.6 5.7 5.9 5.3 6.4 6.2 7.4 7.2 7.7 7.0 7.0
0.2 0.2 0.0 0.0 0.0 0.0 0.0 0.0 0.0 0.0 0.0 0.0 0.5 0.9 0.1 1.7 1.5 1.3 0.9 1.9 5.2 5.8 4.9 3.8 2.2 0.0 0.4 0.2 0.3 1.0 1.2 1.8 1.1 3.5 4.0 4.9 6.4 6.9 7.1 8.7 9.1 8.2 13.4 21.1
0.0 0.0 0.0 0.0 0.0 0.0 0.2 0.3 0.6 0.6 0.4 0.4 3.1 6.2 6.9 6.3 2.2 2.7 3.6 4.1 5.6 5.5 3.1 2.5 1.6 0.5 1.0 0.3 0.8 1.3 2.9 3.3 4.6 6.2 5.7 8.9 6.4 6.2 9.1 8.5 8.5 9.6 12.3 12.4
0.0 0.0 0.0 0.0 0.1 0.2 0.2 0.3 1.2 1.3 4.4 4.3 7.0 5.6 5.7 5.9 2.6 2.3 3.0 8.8 9.7 3.9 2.1 2.7 0.0 1.2 0.7 0.8 1.2 2.9 5.2 9.2 5.5 3.7 5.5 8.0 13.5 6.7 11.3 14.5 12.3 15.9 10.5 10.7
0.0 0.0 0.0 0.0 0.0 0.6 1.8 1.4 3.0 1.9 1.1 2.6 6.9 8.3 4.8 7.0 8.5 9.9 6.1 4.4 2.8 2.5 2.1 1.9 1.8 2.2 2.2 1.2 2.8 3.1 6.8 12.3 6.5 12.0 15.7 8.4 19.4 25.0 17.9 8.6 13.0 17.2 28.7 22.8
0.2 0.2 1.3 1.7 1.8 3.2 4.5 5.2 4.0 1.7 2.0 6.3 9.3 10.1 9.3 6.3 8.2 11.4 7.3 2.9 2.1 4.0 2.1 1.9 2.3 2.1 0.9 1.0 1.0 9.5 14.9 18.9 18.8 13.4 13.2 24.7 30.1 23.5 24.8 28.6 26.7 30.7 33.7 27.5
0.2 1.8 4.1 3.1 2.1 1.6 2.3 2.0 1.8 4.7 4.8 8.0 13.3 16.5 11.9 4.3 7.1 7.3 9.6 4.4 2.4 4.0 3.4 4.0 2.7 5.0 3.7 6.9 5.3 18.1 10.0 11.1 14.4 14.8 15.2 22.3 23.2 32.0 33.1 29.8 28.2 33.3 33.8 34.9
0.3 0.5 1.5 3.0 3.2 1.0 1.8 2.8 6.0 6.7 10.0 9.2 11.1 7.7 6.3 3.4 3.9 6.3 6.3 2.1 2.9 6.5 3.7 8.9 7.0 7.2 7.5 21.1 20.4 21.6 20.6 19.9 19.5 17.4 18.3 25.7 24.6 39.5 23.0 23.1 26.8 28.0 37.5 26.5
0.4 0.9 0.7 1.6 2.4 2.3 3.0 0.9 1.3 2.6 8.8 5.7 7.1 10.3 5.3 10.1 15.9 4.1 4.2 7.1 7.4 25.5 23.5 15.8 15.7 7.6 8.1 23.9 22.5 24.5 22.3 24.7 24.9 27.4 13.6 9.8 35.6 27.8 22.2 31.6 19.6 27.1 28.7 23.5
1.7 0.9 1.0 3.0 1.9 1.5 0.7 0.9 1.5 2.0 2.3 2.4 2.3 2.2 3.2 3.8 11.5 7.7 12.1 11.4 8.2 8.9 15.5 8.6 7.4 8.1 28.3 28.3 25.5 25.2 25.1 22.9 25.8 29.8 21.2 28.2 25.3 39.1 34.7 25.9 29.3 31.8 31.3 28.7
0.7 1.1 0.9 0.6 0.9 0.8 1.2 1.7 3.0 3.5 3.5 8.9 5.8 17.6 14.1 8.7 7.8 7.4 10.3 9.1 8.2 8.1 10.3 22.2 30.8 31.7 29.0 20.8 23.0 22.7 18.2 12.7 20.1 18.8 21.6 19.8 19.4 16.5 21.5 20.0 27.0 33.6 41.8 45.8
1.7 0.9 2.1 1.8 1.4 2.3 2.6 2.7 6.2 6.6 7.2 13.5 11.4 13.1 7.9 13.0 15.5 9.2 10.3 18.6 19.1 20.0 20.3 24.8 22.5 14.6 14.8 23.5 19.0 17.6 18.1 18.0 12.5 14.2 25.0 28.8 26.7 36.9 32.9 33.5 38.1 42.0 35.9 30.8

GFSNGP_prec_sndepth_012.txt.gz
Snowfall_Accumulation
0.0 0.0 0.0 0.0 0.0 0.0 0.0 0.0 1.1 0.1 0.0 0.0 0.0 0.0 0.0 0.0 0.0 0.0 0.0 0.0 0.0 0.0 0.0 0.0 0.0 0.0 0.0 0.0 0.0 0.0 0.0 0.0 0.0 0.0 0.0 0.0 0.0 0.0 0.0 0.0 0.0 0.0 0.0 0.0
0.2 0.0 0.0 0.1 0.0 0.0 0.0 0.0 0.0 0.0 0.0 0.0 0.0 0.0 0.0 0.0 0.0 0.0 0.0 0.0 0.0 0.0 0.0 0.0 0.0 0.0 0.0 0.0 0.0 0.0 0.0 0.0 0.0 0.0 0.0 0.0 0.0 0.0 0.0 0.0 0.0 0.0 0.0 0.0
2.1 0.0 0.4 4.5 0.1 0.0 0.0 0.0 0.0 0.4 0.0 0.0 0.0 0.0 0.0 0.0 0.0 0.0 0.0 0.0 0.0 0.0 0.0 0.0 0.0 0.0 0.0 0.0 0.0 0.0 0.0 0.0 0.0 0.0 0.0 0.0 0.0 0.0 0.0 0.0 0.0 0.0 0.0 0.0
5.8 3.0 9.5 0.1 0.0 0.0 0.0 0.0 0.0 0.0 0.0 0.0 0.0 0.0 0.0 0.0 0.0 0.0 0.0 0.0 0.0 0.0 0.0 0.0 0.0 0.0 0.0 0.0 0.0 0.0 0.0 0.0 0.0 0.0 0.0 0.0 0.0 0.0 0.0 0.0 0.0 0.0 0.0 0.0
10.3 2.2 0.1 0.0 0.0 0.1 0.1 0.1 0.0 0.0 0.0 0.0 0.0 0.0 0.0 0.0 0.0 0.0 0.0 0.0 0.0 0.0 0.0 0.0 0.0 0.0 0.0 0.0 0.0 0.0 0.0 0.0 0.0 0.0 0.0 0.0 0.0 0.0 0.0 0.0 0.0 0.0 0.0 0.0
4.9 7.7 11.4 0.1 0.0 0.0 0.0 0.8 0.0 0.0 0.0 0.0 0.0 0.8 0.0 0.0 0.0 0.0 0.0 0.0 0.0 0.0 0.0 0.0 0.0 0.0 0.0 0.0 0.0 0.0 0.0 0.0 0.0 0.0 0.0 0.0 0.0 0.0 0.0 0.0 0.0 0.0 0.0 0.0
5.4 9.1 2.6 0.0 0.0 0.0 3.1 0.4 0.1 0.0 0.0 0.0 0.0 0.2 0.0 0.0 0.0 0.0 0.0 0.0 0.0 0.0 0.0 0.0 0.0 0.0 0.0 0.0 0.0 0.0 0.0 0.0 0.0 0.0 0.0 0.0 0.0 0.0 0.0 0.0 0.1 1.1 2.3 1.0
5.3 8.1 8.6 0.0 0.0 1.3 0.5 0.0 0.0 0.0 0.0 0.0 0.0 0.0 0.0 0.0 0.0 0.0 0.0 0.0 0.0 0.0 0.0 0.0 0.0 0.0 0.0 0.0 0.0 0.0 0.0 0.0 0.0 0.0 0.0 0.0 0.0 0.0 0.0 0.1 0.4 1.5 8.3 3.6
0.3 2.3 0.0 0.0 0.0 0.0 0.0 0.0 0.0 0.0 0.0 0.0 0.0 0.0 0.0 0.0 0.0 0.0 0.0 0.0 0.0 0.0 0.0 0.0 0.0 0.0 0.0 0.0 0.0 0.0 0.0 0.0 0.0 0.0 0.0 0.0 0.0 0.0 0.0 0.0 1.3 2.5 2.1 4.2
0.5 0.0 0.0 0.0 0.0 0.0 0.0 0.0 0.0 0.0 0.0 0.0 0.0 0.0 0.0 0.0 0.0 0.0 0.0 0.0 0.0 0.0 0.0 0.0 0.0 0.0 0.0 0.0 0.0 0.0 0.0 0.0 0.0 0.0 0.0 0.0 0.0 0.0 0.0 1.4 2.3 2.3 3.2 2.5
0.1 0.0 0.0 0.0 0.0 0.0 0.0 0.0 0.0 0.0 0.0 0.0 0.0 0.0 0.0 0.0 0.0 0.0 0.0 0.0 0.0 0.0 0.0 0.0 0.0 0.0 0.0 0.0 0.0 0.0 0.0 0.0 0.1 0.3 0.0 0.0 0.0 0.0 1.1 0.7 2.1 3.0 2.5 3.1
1.2 0.0 0.0 0.0 0.0 0.0 0.0 0.0 0.0 0.0 0.0 0.0 0.0 0.0 0.0 0.0 0.0 0.0 0.0 0.0 0.0 0.0 0.0 0.0 0.0 0.1 0.1 0.1 0.1 0.1 0.1 0.3 1.1 1.4 1.1 0.0 0.0 0.0 nan nan nan nan nan 6.6
0.0 0.0 0.0 0.0 0.0 0.0 0.0 0.0 0.0 0.0 0.0 0.0 0.0 0.0 0.0 0.0 0.0 nan 0.0 0.0 0.0 0.0 0.0 0.1 0.1 0.1 0.1 0.2 0.5 1.3 0.5 0.5 1.4 1.5 1.5 1.6 1.8 1.9 3.2 2.1 nan nan nan nan
0.0 0.0 0.0 0.0 0.0 0.0 0.0 0.0 0.0 0.0 0.0 0.0 0.0 0.0 0.0 0.0 0.0 0.0 0.0 0.0 0.0 0.0 0.0 0.1 0.1 0.1 0.1 0.1 0.6 1.6 1.0 0.9 1.9 1.7 1.6 2.3 3.7 3.9 4.2 5.8 9.2 8.1 nan nan
0.0 0.0 0.0 0.0 0.0 0.0 0.0 0.0 0.0 0.0 0.0 0.0 0.0 0.0 0.0 0.0 0.0 0.0 0.0 0.0 0.0 0.0 0.0 0.0 0.0 0.0 0.1 0.2 0.3 0.3 0.7 1.5 3.7 5.1 5.0 4.9 5.7 5.8 5.4 6.4 6.8 6.0 5.2 2.3
0.0 0.0 0.0 0.0 0.0 0.0 0.0 0.0 0.0 0.0 0.0 0.0 0.0 0.1 0.0 0.0 0.0 0.0 0.0 0.0 0.8 0.9 0.3 6.6 2.6 0.5 0.2 0.1 0.1 0.2 0.6 0.1 2.1 3.8 4.7 4.9 4.5 5.4 5.1 6.1 6.0 6.9 6.4 6.8
0.1 0.1 0.0 0.0 0.0 0.0 0.0 0.0 0.0 0.0 0.0 0.0 0.3 0.6 0.1 1.2 1.2 1.0 0.7 1.6 4.6 5.5 4.3 3.2 1.7 0.0 0.2 0.1 0.2 0.8 1.0 1.5 1.0 2.9 3.3 4.1 5.5 5.9 6.0 7.5 8.0 7.3 12.6 20.8
0.0 0.0 0.0 0.0 0.0 0.0 0.1 0.2 0.3 0.3 0.2 0.2 2.6 5.9 6.6 5.7 1.8 2.2 3.2 3.5 5.2 5.1 2.5 1.9 1.3 0.3 0.7 0.2 0.6 1.1 2.5 2.8 3.7 5.1 4.7 7.6 5.4 5.2 7.7 7.3 7.3 8.4 11.1 11.2
0.0 0.0 0.0 0.0 0.0 0.1 0.2 0.2 0.7 0.8 4.0 3.9 6.6 5.3 5.2 5.1 1.9 1.8 2.6 8.0 9.1 3.3 1.4 2.1 0.0 1.0 0.5 0.5 0.9 2.5 4.4 7.8 4.5 3.1 4.6 7.6 12.3 5.8 10.0 12.9 10.6 14.1 9.3 9.8
0.0 0.0 0.0 0.0 0.0 0.4 1.5 1.0 2.6 1.4 0.7 2.1 6.5 8.0 4.4 6.1 7.1 8.3 5.1 3.6 2.0 2.1 1.4 1.2 1.3 1.7 1.6 1.0 2.5 2.6 5.9 10.6 5.5 10.3 13.8 7.3 18.9 24.4 16.4 8.3 11.1 15.2 27.7 21.1
0.1 0.1 0.9 1.4 1.4 2.8 4.2 5.0 3.8 1.4 1.6 6.0 9.0 9.8 9.0 5.3 6.9 9.9 6.4 2.5 1.3 3.1 1.5 1.6 1.8 1.7 0.7 0.8 0.9 8.1 13.1 16.5 16.2 11.6 11.4 22.5 28.7 21.7 23.1 26.3 24.5 28.5 32.7 24.9
0.1 1.4 3.7 2.8 1.8 1.3 1.9 1.5 1.3 4.4 4.5 7.7 12.9 16.0 10.5 3.5 6.0 6.3 8.7 3.8 2.0 3.6 2.8 3.3 2.1 4.6 3.4 6.4 4.4 15.3 8.4 9.4 12.3 12.8 13.4 20.6 22.8 31.5 32.5 28.8 27.0 31.6 31.1 32.1
0.2 0.3 1.2 2.7 2.9 0.6 1.4 2.4 5.7 6.2 9.6 8.6 10.3 6.7 5.4 2.9 3.3 5.6 5.5 1.3 2.3 5.7 3.0 7.2 6.5 6.8 7.1 18.0 17.7 18.6 17.6 17.0 16.7 15.0 16.0 23.2 23.1 38.3 22.5 22.5 26.1 26.4 35.3 24.4
0.3 0.6 0.5 1.2 2.0 1.9 2.6 0.5 0.8 1.9 8.1 4.9 6.2 9.2 4.7 9.2 13.6 3.4 3.5 6.7 7.0 23.0 20.5 13.2 13.8 7.2 7.7 20.5 19.6 21.4 19.4 21.5 21.5 23.6 11.5 9.5 31.9 25.4 20.3 30.4 18.0 25.2 26.6 22.3
1.3 0.6 0.8 2.7 1.5 1.2 0.4 0.6 1.1 1.5 1.8 2.0 1.9 1.7 2.6 3.4 10.3 6.5 10.4 9.6 7.7 7.7 13.1 8.1 7.2 7.8 24.2 24.3 22.0 22.1 22.6 20.3 22.6 26.3 18.4 25.1 22.5 35.2 31.0 24.1 27.9 28.6 30.2 27.0
0.4 0.9 0.7 0.4 0.7 0.7 1.0 1.4 2.6 3.0 3.0 8.0 5.2 15.5 12.5 7.6 6.7 6.4 8.9 8.2 6.9 7.5 8.5 19.1 26.7 27.5 25.0 17.8 19.9 19.8 15.8 10.9 17.1 16.2 19.2 17.5 17.3 14.6 19.2 18.1 25.0 31.7 39.9 43.5
1.3 0.8 1.7 1.4 1.1 1.8 2.1 2.3 5.5 6.1 6.6 12.4 10.5 11.5 7.0 11.6 13.8 8.3 9.5 16.1 16.4 17.5 17.7 21.6 19.4 13.2 12.7 20.4 16.5 15.1 15.3 15.4 11.6 12.5 24.4 26.9 25.6 34.9 31.0 30.9 35.8 38.5 34.7 30.4

GFSNGP_prec_sndepth_015.txt.gz
Snowfall_Accumulation
0.0 0.0 0.0 0.0 0.0 0.0 0.0 0.0 0.8 0.0 0.0 0.0 0.0 0.0 0.0 0.0 0.0 0.0 0.0 0.0 0.0 0.0 0.0 0.0 0.0 0.0 0.0 0.0 0.0 0.0 0.0 0.0 0.0 0.0 0.0 0.0 0.0 0.0 0.0 0.0 0.0 0.0 0.0 0.0
0.1 0.0 0.0 0.1 0.0 0.0 0.0 0.0 0.0 0.0 0.0 0.0 0.0 0.0 0.0 0.0 0.0 0.0 0.0 0.0 0.0 0.0 0.0 0.0 0.0 0.0 0.0 0.0 0.0 0.0 0.0 0.0 0.0 0.0 0.0 0.0 0.0 0.0 0.0 0.0 0.0 0.0 0.0 0.0
0.9 0.0 0.2 3.3 0.0 0.0 0.0 0.0 0.0 0.3 0.0 0.0 0.0 0.0 0.0 0.0 0.0 0.0 0.0 0.0 0.0 0.0 0.0 0.0 0.0 0.0 0.0 0.0 0.0 0.0 0.0 0.0 0.0 0.0 0.0 0.0 0.0 0.0 0.0 0.0 0.0 0.0 0.0 0.0
4.2 2.0 7.3 0.1 0.0 0.0 0.0 0.0 0.0 0.0 0.0 0.0 0.0 0.0 0.0 0.0 0.0 0.0 0.0 0.0 0.0 0.0 0.0 0.0 0.0 0.0 0.0 0.0 0.0 0.0 0.0 0.0 0.0 0.0 0.0 0.0 0.0 0.0 0.0 0.0 0.0 0.0 0.0 0.0
8.5 1.5 0.1 0.0 0.0 0.0 0.0 0.0 0.0 0.0 0.0 0.0 0.0 0.0 0.0 0.0 0.0 0.0 0.0 0.0 0.0 0.0 0.0 0.0 0.0 0.0 0.0 0.0 0.0 0.0 0.0 0.0 0.0 0.0 0.0 0.0 0.0 0.0 0.0 0.0 0.0 0.0 0.0 0.0
3.7 5.6 9.2 0.0 0.0 0.0 0.0 0.6 0.0 0.0 0.0 0.0 0.0 0.7 0.0 0.0 0.0 0.0 0.0 0.0 0.0 0.0 0.0 0.0 0.0 0.0 0.0 0.0 0.0 0.0 0.0 0.0 0.0 0.0 0.0 0.0 0.0 0.0 0.0 0.0 0.0 0.0 0.0 0.0
4.1 7.3 1.9 0.0 0.0 0.0 2.4 0.2 0.0 0.0 0.0 0.0 0.0 0.1 0.0 0.0 0.0 0.0 0.0 0.0 0.0 0.0 0.0 0.0 0.0 0.0 0.0 0.0 0.0 0.0 0.0 0.0 0.0 0.0 0.0 0.0 0.0 0.0 0.0 0.0 0.1 0.5 1.2 0.5
4.1 6.9 7.4 0.0 0.0 1.0 0.4 0.0 0.0 0.0 0.0 0.0 0.0 0.0 0.0 0.0 0.0 0.0 0.0 0.0 0.0 0.0 0.0 0.0 0.0 0.0 0.0 0.0 0.0 0.0 0.0 0.0 0.0 0.0 0.0 0.0 0.0 0.0 0.0 0.0 0.2 0.8 6.5 2.4
0.2 1.6 0.0 0.0 0.0 0.0 0.0 0.0 0.0 0.0 0.0 0.0 0.0 0.0 0.0 0.0 0.0 0.0 0.0 0.0 0.0 0.0 0.0 0.0 0.0 0.0 0.0 0.0 0.0 0.0 0.0 0.0 0.0 0.0 0.0 0.0 0.0 0.0 0.0 0.0 1.0 1.7 1.7 3.5
0.3 0.0 0.0 0.0 0.0 0.0 0.0 0.0 0.0 0.0 0.0 0.0 0.0 0.0 0.0 0.0 0.0 0.0 0.0 0.0 0.0 0.0 0.0 0.0 0.0 0.0 0.0 0.0 0.0 0.0 0.0 0.0 0.0 0.0 0.0 0.0 0.0 0.0 0.0 1.1 1.9 1.9 2.6 2.0
0.1 0.0 0.0 0.0 0.0 0.0 0.0 0.0 0.0 0.0 0.0 0.0 0.0 0.0 0.0 0.0 0.0 0.0 0.0 0.0 0.0 0.0 0.0 0.0 0.0 0.0 0.0 0.0 0.0 0.0 0.0 0.0 0.0 0.2 0.0 0.0 0.0 0.0 0.9 0.5 1.7 2.3 2.0 2.5
0.9 0.0 0.0 0.0 0.0 0.0 0.0 0.0 0.0 0.0 0.0 0.0 0.0 0.0 0.0 0.0 0.0 0.0 0.0 0.0 0.0 0.0 0.0 0.0 0.0 0.0 0.0 0.0 0.0 0.0 0.0 0.2 0.8 1.0 0.9 0.0 0.0 0.0 nan nan nan nan nan 5.7
0.0 0.0 0.0 0.0 0.0 0.0 0.0 0.0 0.0 0.0 0.0 0.0 0.0 0.0 0.0 0.0 0.0 nan 0.0 0.0 0.0 0.0 0.0 0.0 0.0 0.0 0.0 0.1 0.3 0.7 0.3 0.3 1.1 1.2 1.2 1.3 1.5 1.7 2.7 1.7 nan nan nan nan
0.0 0.0 0.0 0.0 0.0 0.0 0.0 0.0 0.0 0.0 0.0 0.0 0.0 0.0 0.0 0.0 0.0 0.0 0.0 0.0 0.0 0.0 0.0 0.1 0.1 0.1 0.1 0.1 0.3 1.0 0.5 0.4 1.5 1.4 1.4 2.0 3.2 3.3 3.5 5.0 8.3 6.7 nan nan
0.0 0.0 0.0 0.0 0.0 0.0 0.0 0.0 0.0 0.0 0.0 0.0 0.0 0.0 0.0 0.0 0.0 0.0 0.0 0.0 0.0 0.0 0.0 0.0 0.0 0.0 0.0 0.1 0.2 0.2 0.6 1.3 3.0 4.4 4.3 4.1 4.8 4.9 4.5 5.3 5.5 4.9 4.2 1.8
0.0 0.0 0.0 0.0 0.0 0.0 0.0 0.0 0.0 0.0 0.0 0.0 0.0 0.0 0.0 0.0 0.0 0.0 0.0 0.0 0.7 0.7 0.2 5.6 1.9 0.3 0.1 0.1 0.1 0.1 0.5 0.1 1.6 3.3 4.0 4.2 3.9 4.7 4.3 5.1 4.9 5.7 5.3 5.6
0.1 0.1 0.0 0.0 0.0 0.0 0.0 0.0 0.0 0.0 0.0 0.0 0.1 0.3 0.0 0.6 0.6 0.5 0.3 1.0 3.8 4.5 3.4 2.5 1.2 0.0 0.1 0.1 0.2 0.7 0.9 1.3 0.6 2.4 2.8 3.5 4.8 5.1 5.1 6.3 6.7 6.3 11.1 19.1
0.0 0.0 0.0 0.0 0.0 0.0 0.0 0.1 0.2 0.2 0.1 0.1 1.8 5.0 5.8 4.9 1.1 1.4 2.2 2.6 4.1 4.1 1.8 1.4 0.9 0.2 0.4 0.1 0.4 0.9 2.1 2.4 3.2 4.4 4.1 6.6 4.7 4.5 6.8 6.4 6.0 7.0 9.9 9.1
0.0 0.0 0.0 0.0 0.0 0.1 0.1 0.1 0.3 0.4 3.3 3.0 5.5 4.4 4.3 4.3 1.2 1.0 1.8 6.7 7.7 2.6 0.8 1.3 0.0 0.6 0.3 0.3 0.4 2.1 3.8 6.8 4.0 2.6 3.8 7.1 10.8 5.0 9.1 11.5 9.3 12.4 7.9 8.5
0.0 0.0 0.0 0.0 0.0 0.2 0.9 0.5 1.9 0.7 0.3 1.3 5.6 6.9 3.4 5.2 5.9 7.0 3.9 3.0 1.4 1.7 0.7 0.6 0.7 0.9 1.0 0.7 2.2 2.2 5.0 9.2 4.8 8.8 11.7 6.3 16.6 22.8 16.0 7.9 9.3 13.3 25.0 20.1
0.1 0.1 0.4 0.8 0.7 2.1 3.5 4.2 3.1 0.8 0.9 5.1 7.7 8.6 7.8 4.3 5.7 8.3 5.3 2.2 0.8 2.1 0.7 1.1 1.2 1.4 0.6 0.7 0.8 6.8 11.0 14.3 14.0 9.9 9.7 19.8 26.0 19.7 22.6 22.9 21.9 25.7 30.4 23.9
0.1 0.7 2.9 2.1 1.2 0.7 1.2 0.8 0.7 3.5 3.5 6.5 11.3 13.9 9.2 2.9 4.8 4.9 7.0 2.9 1.6 3.1 2.2 2.7 1.7 4.1 3.0 5.9 3.5 13.0 7.1 8.0 10.4 10.9 11.5 17.8 20.3 29.8 32.0 28.1 25.6 29.1 28.2 29.1
0.1 0.2 0.8 2.0 2.2 0.3 0.8 1.6 4.7 5.1 8.3 7.3 8.8 5.5 4.6 2.5 2.8 4.8 4.6 0.8 1.8 5.0 2.3 5.8 5.9 6.3 6.6 15.1 14.8 16.1 15.2 14.7 14.4 12.9 13.8 20.3 20.6 37.1 22.3 22.2 25.4 25.6 34.4 23.1
0.2 0.3 0.2 0.6 1.2 1.2 1.7 0.2 0.4 1.0 6.8 3.8 5.1 7.8 3.7 8.0 11.4 2.6 2.7 6.2 6.4 20.4 17.7 11.0 12.1 6.7 7.2 17.4 16.6 18.6 16.8 18.6 18.5 20.4 9.8 8.9 27.8 23.4 19.5 30.0 17.8 24.9 25.4 21.8
0.7 0.3 0.4 1.9 0.9 0.9 0.2 0.2 0.6 0.9 1.1 1.1 1.1 1.1 1.8 2.7 9.1 5.4 8.9 8.2 7.0 6.5 10.8 7.3 6.7 7.3 20.6 20.8 18.9 19.1 19.5 17.6 19.6 22.9 15.8 21.8 19.7 30.8 27.1 23.0 27.6 28.1 29.7 25.8
0.2 0.7 0.5 0.2 0.5 0.5 0.8 1.0 1.9 2.3 2.3 6.3 4.0 13.2 10.3 6.3 5.8 5.5 7.6 7.3 5.7 6.7 6.8 16.5 23.2 23.7 21.6 15.3 17.1 17.2 13.5 9.5 15.2 15.2 18.0 16.9 15.9 13.0 17.5 16.8 24.7 31.2 39.4 42.8
0.9 0.3 1.3 1.1 0.8 1.3 1.5 1.6 4.3 4.8 5.5 10.4 8.7 9.3 5.8 9.9 12.0 7.4 8.7 14.1 14.3 15.2 15.3 19.0 17.0 11.7 10.7 17.6 14.3 13.0 13.1 13.2 10.8 11.1 24.1 26.6 25.3 34.5 30.7 30.5 35.4 36.7 33.0 30.0

GFSNGP_prec_sndepth_021.txt.gz
Snowfall_Accumulation
0.0 0.0 0.0 0.0 0.0 0.0 0.0 0.0 0.6 0.0 0.0 0.0 0.0 0.0 0.0 0.0 0.0 0.0 0.0 0.0 0.0 0.0 0.0 0.0 0.0 0.0 0.0 0.0 0.0 0.0 0.0 0.0 0.0 0.0 0.0 0.0 0.0 0.0 0.0 0.0 0.0 0.0 0.0 0.0
0.0 0.0 0.0 0.0 0.0 0.0 0.0 0.0 0.0 0.0 0.0 0.0 0.0 0.0 0.0 0.0 0.0 0.0 0.0 0.0 0.0 0.0 0.0 0.0 0.0 0.0 0.0 0.0 0.0 0.0 0.0 0.0 0.0 0.0 0.0 0.0 0.0 0.0 0.0 0.0 0.0 0.0 0.0 0.0
0.4 0.0 0.1 2.6 0.0 0.0 0.0 0.0 0.0 0.2 0.0 0.0 0.0 0.0 0.0 0.0 0.0 0.0 0.0 0.0 0.0 0.0 0.0 0.0 0.0 0.0 0.0 0.0 0.0 0.0 0.0 0.0 0.0 0.0 0.0 0.0 0.0 0.0 0.0 0.0 0.0 0.0 0.0 0.0
3.2 1.4 6.1 0.0 0.0 0.0 0.0 0.0 0.0 0.0 0.0 0.0 0.0 0.0 0.0 0.0 0.0 0.0 0.0 0.0 0.0 0.0 0.0 0.0 0.0 0.0 0.0 0.0 0.0 0.0 0.0 0.0 0.0 0.0 0.0 0.0 0.0 0.0 0.0 0.0 0.0 0.0 0.0 0.0
7.0 1.1 0.0 0.0 0.0 0.0 0.0 0.0 0.0 0.0 0.0 0.0 0.0 0.0 0.0 0.0 0.0 0.0 0.0 0.0 0.0 0.0 0.0 0.0 0.0 0.0 0.0 0.0 0.0 0.0 0.0 0.0 0.0 0.0 0.0 0.0 0.0 0.0 0.0 0.0 0.0 0.0 0.0 0.0
2.9 4.4 8.0 0.0 0.0 0.0 0.0 0.5 0.0 0.0 0.0 0.0 0.0 0.6 0.0 0.0 0.0 0.0 0.0 0.0 0.0 0.0 0.0 0.0 0.0 0.0 0.0 0.0 0.0 0.0 0.0 0.0 0.0 0.0 0.0 0.0 0.0 0.0 0.0 0.0 0.0 0.0 0.0 0.0
3.2 5.8 1.5 0.0 0.0 0.0 2.0 0.1 0.0 0.0 0.0 0.0 0.0 0.1 0.0 0.0 0.0 0.0 0.0 0.0 0.0 0.0 0.0 0.0 0.0 0.0 0.0 0.0 0.0 0.0 0.0 0.0 0.0 0.0 0.0 0.0 0.0 0.0 0.0 0.0 0.0 0.4 0.9 0.4
3.2 5.7 6.5 0.0 0.0 0.7 0.3 0.0 0.0 0.0 0.0 0.0 0.0 0.0 0.0 0.0 0.0 0.0 0.0 0.0 0.0 0.0 0.0 0.0 0.0 0.0 0.0 0.0 0.0 0.0 0.0 0.0 0.0 0.0 0.0 0.0 0.0 0.0 0.0 0.0 0.2 0.6 5.8 2.1
0.2 1.2 0.0 0.0 0.0 0.0 0.0 0.0 0.0 0.0 0.0 0.0 0.0 0.0 0.0 0.0 0.0 0.0 0.0 0.0 0.0 0.0 0.0 0.0 0.0 0.0 0.0 0.0 0.0 0.0 0.0 0.0 0.0 0.0 0.0 0.0 0.0 0.0 0.0 0.0 0.9 1.4 1.6 3.2
0.2 0.0 0.0 0.0 0.0 0.0 0.0 0.0 0.0 0.0 0.0 0.0 0.0 0.0 0.0 0.0 0.0 0.0 0.0 0.0 0.0 0.0 0.0 0.0 0.0 0.0 0.0 0.0 0.0 0.0 0.0 0.0 0.0 0.0 0.0 0.0 0.0 0.0 0.0 0.9 1.7 1.7 2.4 1.9
0.0 0.0 0.0 0.0 0.0 0.0 0.0 0.0 0.0 0.0 0.0 0.0 0.0 0.0 0.0 0.0 0.0 0.0 0.0 0.0 0.0 0.0 0.0 0.0 0.0 0.0 0.0 0.0 0.0 0.0 0.0 0.0 0.0 0.2 0.0 0.0 0.0 0.0 0.7 0.4 1.5 2.1 1.8 2.4
0.7 0.0 0.0 0.0 0.0 0.0 0.0 0.0 0.0 0.0 0.0 0.0 0.0 0.0 0.0 0.0 0.0 0.0 0.0 0.0 0.0 0.0 0.0 0.0 0.0 0.0 0.0 0.0 0.0 0.0 0.0 0.2 0.7 0.9 0.8 0.0 0.0 0.0 nan nan nan nan nan 5.6
0.0 0.0 0.0 0.0 0.0 0.0 0.0 0.0 0.0 0.0 0.0 0.0 0.0 0.0 0.0 0.0 0.0 nan 0.0 0.0 0.0 0.0 0.0 0.0 0.0 0.0 0.0 0.1 0.2 0.5 0.2 0.2 1.0 1.0 1.1 1.1 1.3 1.5 2.6 1.5 nan nan nan nan
0.0 0.0 0.0 0.0 0.0 0.0 0.0 0.0 0.0 0.0 0.0 0.0 0.0 0.0 0.0 0.0 0.0 0.0 0.0 0.0 0.0 0.0 0.0 0.0 0.0 0.0 0.0 0.0 0.2 0.7 0.4 0.3 1.3 1.2 1.2 1.8 3.0 3.2 3.4 4.8 8.0 6.4 nan nan
0.0 0.0 0.0 0.0 0.0 0.0 0.0 0.0 0.0 0.0 0.0 0.0 0.0 0.0 0.0 0.0 0.0 0.0 0.0 0.0 0.0 0.0 0.0 0.0 0.0 0.0 0.0 0.1 0.1 0.2 0.5 1.1 2.7 4.0 4.0 3.8 4.5 4.7 4.2 4.9 5.2 4.6 3.9 1.7
0.0 0.0 0.0 0.0 0.0 0.0 0.0 0.0 0.0 0.0 0.0 0.0 0.0 0.0 0.0 0.0 0.0 0.0 0.0 0.0 0.6 0.6 0.2 4.8 1.7 0.2 0.1 0.0 0.1 0.1 0.4 0.0 1.5 3.1 3.7 3.9 3.7 4.5 4.1 4.8 4.6 5.4 5.3 5.5
0.0 0.0 0.0 0.0 0.0 0.0 0.0 0.0 0.0 0.0 0.0 0.0 0.1 0.2 0.0 0.4 0.4 0.3 0.2 0.7 3.2 3.9 2.8 2.1 1.1 0.0 0.1 0.1 0.1 0.6 0.7 1.1 0.5 2.2 2.6 3.3 4.7 4.9 5.1 6.3 6.6 6.0 11.0 18.9
0.0 0.0 0.0 0.0 0.0 0.0 0.0 0.1 0.1 0.1 0.1 0.1 1.5 4.7 5.5 4.7 0.9 1.1 1.8 2.2 3.6 3.4 1.4 1.1 0.8 0.2 0.3 0.1 0.3 0.7 1.9 2.2 3.0 4.1 3.8 6.3 4.5 4.5 6.6 6.2 6.0 7.0 9.8 8.5
0.0 0.0 0.0 0.0 0.0 0.0 0.1 0.1 0.2 0.3 3.0 2.7 5.1 4.1 3.9 3.9 0.9 0.7 1.3 5.9 7.0 2.3 0.6 1.0 0.0 0.5 0.2 0.3 0.3 1.8 3.5 6.3 3.8 2.5 3.6 7.0 10.3 4.9 9.0 11.5 9.1 12.3 7.9 8.5
0.0 0.0 0.0 0.0 0.0 0.1 0.6 0.3 1.6 0.5 0.2 1.0 5.2 6.5 3.1 4.8 5.2 6.2 3.4 2.6 1.1 1.4 0.6 0.4 0.5 0.7 0.8 0.6 2.1 2.0 4.5 8.6 4.6 8.3 10.9 5.9 15.5 21.6 15.9 7.8 8.9 13.0 24.7 19.9
0.0 0.1 0.3 0.5 0.5 1.7 3.0 3.7 2.8 0.5 0.6 4.6 6.9 7.8 7.1 3.8 5.2 7.5 4.7 1.9 0.5 1.7 0.5 0.9 1.1 1.2 0.5 0.6 0.7 6.1 10.0 13.1 13.1 9.2 9.0 18.3 24.3 18.7 22.3 22.6 20.9 24.6 29.9 23.6
0.0 0.4 2.3 1.7 0.9 0.4 0.9 0.5 0.4 3.0 3.1 6.0 10.0 12.4 8.6 2.7 4.4 4.4 6.1 2.4 1.2 2.9 1.9 2.3 1.5 3.9 2.8 5.8 3.1 11.6 6.4 7.2 9.6 10.1 10.8 16.5 19.0 28.3 31.4 27.7 25.2 28.6 27.7 28.7
0.1 0.1 0.6 1.6 1.8 0.2 0.6 1.1 4.3 4.3 7.1 6.3 8.1 5.0 4.0 2.2 2.4 4.4 4.1 0.5 1.5 4.5 2.0 4.7 5.5 6.1 6.4 13.5 13.3 14.6 14.0 13.6 13.3 12.0 12.8 18.8 19.0 35.3 21.9 21.9 25.0 25.2 33.7 22.8
0.1 0.2 0.2 0.4 0.9 0.8 1.3 0.1 0.2 0.7 6.1 3.3 4.5 6.8 3.1 6.9 9.8 2.1 2.2 5.8 6.1 17.7 14.8 9.3 10.5 6.5 7.1 16.0 15.4 17.1 15.4 17.0 17.1 18.8 9.0 8.8 25.7 21.3 17.9 29.4 17.7 24.5 25.1 21.5
0.4 0.2 0.3 1.5 0.6 0.8 0.1 0.2 0.4 0.6 0.8 0.8 0.8 0.8 1.4 2.3 7.6 4.3 7.2 6.7 6.6 5.7 9.0 6.8 6.6 7.2 18.6 19.0 17.4 17.6 17.9 16.0 17.9 21.0 14.8 20.7 18.5 28.4 25.0 21.0 27.0 27.7 29.2 25.4
0.1 0.6 0.4 0.1 0.4 0.4 0.6 0.8 1.5 1.7 2.1 5.2 3.2 11.3 8.6 5.2 4.6 4.6 6.3 6.6 4.8 6.3 5.6 13.6 19.3 19.7 18.8 13.9 15.7 15.9 12.4 8.7 14.0 14.3 17.8 16.7 15.8 12.7 17.2 16.1 24.0 30.7 38.5 41.9
0.7 0.2 1.0 0.8 0.6 1.0 1.1 1.2 3.3 3.9 4.7 9.0 7.5 7.8 4.8 8.3 10.3 6.6 8.1 12.2 12.2 12.9 12.9 16.0 14.3 10.5 9.1 15.2 13.0 11.9 11.9 12.1 10.4 10.4 23.7 26.2 24.9 33.8 30.2 30.0 34.7 36.0 32.4 29.6

GFSNGP_prec_sndepth_024.txt.gz
Snowfall_Accumulation
0.0 0.0 0.0 0.0 0.0 0.0 0.0 0.0 0.6 0.0 0.0 0.0 0.0 0.0 0.0 0.0 0.0 0.0 0.0 0.0 0.0 0.0 0.0 0.0 0.0 0.0 0.0 0.0 0.0 0.0 0.0 0.0 0.0 0.0 0.0 0.0 0.0 0.0 0.0 0.0 0.0 0.0 0.0 0.0
0.0 0.0 0.0 0.0 0.0 0.0 0.0 0.0 0.0 0.0 0.0 0.0 0.0 0.0 0.0 0.0 0.0 0.0 0.0 0.0 0.0 0.0 0.0 0.0 0.0 0.0 0.0 0.0 0.0 0.0 0.0 0.0 0.0 0.0 0.0 0.0 0.0 0.0 0.0 0.0 0.0 0.0 0.0 0.0
0.4 0.0 0.1 2.6 0.0 0.0 0.0 0.0 0.0 0.2 0.0 0.0 0.0 0.0 0.0 0.0 0.0 0.0 0.0 0.0 0.0 0.0 0.0 0.0 0.0 0.0 0.0 0.0 0.0 0.0 0.0 0.0 0.0 0.0 0.0 0.0 0.0 0.0 0.0 0.0 0.0 0.0 0.0 0.0
3.2 1.4 6.1 0.0 0.0 0.0 0.0 0.0 0.0 0.0 0.0 0.0 0.0 0.0 0.0 0.0 0.0 0.0 0.0 0.0 0.0 0.0 0.0 0.0 0.0 0.0 0.0 0.0 0.0 0.0 0.0 0.0 0.0 0.0 0.0 0.0 0.0 0.0 0.0 0.1 0.0 0.0 0.0 0.0
7.0 1.1 0.0 0.0 0.0 0.0 0.0 0.0 0.0 0.0 0.0 0.0 0.0 0.0 0.0 0.0 0.0 0.0 0.0 0.0 0.0 0.0 0.0 0.0 0.0 0.0 0.0 0.0 0.0 0.0 0.0 0.0 0.0 0.0 0.0 0.0 0.0 0.0 0.0 0.0 0.0 0.0 0.0 0.0
2.9 4.4 8.0 0.0 0.0 0.0 0.0 0.5 0.0 0.0 0.0 0.0 0.0 0.6 0.0 0.0 0.0 0.0 0.0 0.0 0.0 0.0 0.0 0.0 0.0 0.0 0.0 0.0 0.0 0.0 0.0 0.0 0.0 0.0 0.0 0.0 0.0 0.0 0.0 0.0 0.0 0.0 0.0 0.0
3.2 5.8 1.5 0.0 0.0 0.0 2.0 0.1 0.0 0.0 0.0 0.0 0.0 0.1 0.0 0.0 0.0 0.0 0.0 0.0 0.0 0.0 0.0 0.0 0.0 0.0 0.0 0.0 0.0 0.0 0.0 0.0 0.0 0.0 0.0 0.0 0.0 0.0 0.0 0.0 0.0 0.4 0.9 0.4
3.2 5.7 6.5 0.0 0.0 0.7 0.3 0.0 0.0 0.0 0.0 0.0 0.0 0.0 0.0 0.0 0.0 0.0 0.0 0.0 0.0 0.0 0.0 0.0 0.0 0.0 0.0 0.0 0.0 0.0 0.0 0.0 0.0 0.0 0.0 0.0 0.0 0.0 0.0 0.0 0.2 0.6 5.9 2.1
0.2 1.2 0.0 0.0 0.0 0.0 0.0 0.0 0.0 0.0 0.0 0.0 0.0 0.0 0.0 0.0 0.0 0.0 0.0 0.0 0.0 0.0 0.0 0.0 0.0 0.0 0.0 0.0 0.0 0.0 0.0 0.0 0.0 0.0 0.0 0.0 0.0 0.0 0.0 0.0 0.9 1.4 1.6 3.2
0.2 0.0 0.0 0.0 0.0 0.0 0.0 0.0 0.0 0.0 0.0 0.0 0.0 0.0 0.0 0.0 0.0 0.0 0.0 0.0 0.0 0.0 0.0 0.0 0.0 0.0 0.0 0.0 0.0 0.0 0.0 0.0 0.0 0.0 0.0 0.0 0.0 0.0 0.0 0.9 1.7 1.7 2.4 1.9
0.0 0.0 0.0 0.0 0.0 0.0 0.0 0.0 0.0 0.0 0.0 0.0 0.0 0.0 0.0 0.0 0.0 0.0 0.0 0.0 0.0 0.0 0.0 0.0 0.0 0.0 0.0 0.0 0.0 0.0 0.0 0.0 0.0 0.2 0.0 0.0 0.0 0.0 0.7 0.4 1.5 2.1 1.8 2.4
0.7 0.0 0.0 0.0 0.0 0.0 0.0 0.0 0.0 0.0 0.0 0.0 0.0 0.0 0.0 0.0 0.0 0.0 0.0 0.0 0.0 0.0 0.0 0.0 0.0 0.0 0.0 0.0 0.0 0.0 0.0 0.2 0.7 0.9 0.8 0.0 0.0 0.0 nan nan nan nan nan 5.6
0.0 0.0 0.0 0.0 0.0 0.0 0.0 0.0 0.0 0.0 0.0 0.0 0.0 0.0 0.0 0.0 0.0 nan 0.0 0.0 0.0 0.0 0.0 0.0 0.0 0.0 0.0 0.1 0.2 0.5 0.2 0.2 1.0 1.0 1.1 1.1 1.3 1.5 2.6 1.5 nan nan nan nan
0.0 0.0 0.0 0.0 0.0 0.0 0.0 0.0 0.0 0.0 0.0 0.0 0.0 0.0 0.0 0.0 0.0 0.0 0.0 0.0 0.0 0.0 0.0 0.0 0.0 0.0 0.0 0.0 0.2 0.7 0.4 0.3 1.3 1.2 1.3 1.8 3.0 3.2 3.4 4.8 8.0 6.4 nan nan
0.0 0.0 0.0 0.0 0.0 0.0 0.0 0.0 0.0 0.0 0.0 0.0 0.0 0.0 0.0 0.0 0.0 0.0 0.0 0.0 0.0 0.0 0.0 0.0 0.0 0.0 0.0 0.1 0.1 0.2 0.5 1.1 2.7 4.0 4.0 3.8 4.5 4.7 4.2 4.9 5.2 4.7 3.9 1.7
0.0 0.0 0.0 0.0 0.0 0.0 0.0 0.0 0.0 0.0 0.0 0.0 0.0 0.0 0.0 0.0 0.0 0.0 0.0 0.0 0.6 0.6 0.2 4.8 1.8 0.2 0.1 0.0 0.1 0.1 0.4 0.0 1.5 3.1 3.7 3.9 3.7 4.5 4.1 4.8 4.6 5.4 5.3 5.5
0.0 0.0 0.0 0.0 0.0 0.0 0.0 0.0 0.0 0.0 0.0 0.0 0.1 0.2 0.0 0.4 0.4 0.3 0.2 0.7 3.2 3.9 2.8 2.1 1.1 0.0 0.1 0.0 0.1 0.6 0.7 1.1 0.5 2.2 2.6 3.3 4.7 5.0 5.1 6.3 6.6 6.0 11.0 18.8
0.0 0.0 0.0 0.0 0.0 0.0 0.0 0.1 0.1 0.1 0.1 0.1 1.5 4.7 5.5 4.7 0.9 1.1 1.8 2.2 3.5 3.4 1.4 1.1 0.8 0.2 0.4 0.1 0.3 0.7 1.9 2.2 3.0 4.1 3.8 6.3 4.5 4.5 6.7 6.3 6.0 7.0 9.9 8.5
0.0 0.0 0.0 0.0 0.0 0.0 0.1 0.1 0.2 0.3 3.0 2.7 5.1 4.1 3.9 3.9 0.9 0.7 1.3 5.9 6.9 2.3 0.6 1.0 0.0 0.5 0.2 0.3 0.4 1.9 3.5 6.3 3.8 2.5 3.6 7.0 10.3 4.9 9.0 11.5 9.1 12.3 7.9 8.5
0.0 0.0 0.0 0.0 0.0 0.1 0.6 0.3 1.6 0.5 0.2 1.0 5.2 6.5 3.1 4.9 5.2 6.2 3.4 2.6 1.1 1.4 0.6 0.4 0.5 0.7 0.8 0.6 2.1 2.0 4.5 8.6 4.6 8.3 10.9 5.9 15.4 21.5 15.9 7.9 9.0 13.0 24.6 19.8
0.0 0.1 0.3 0.5 0.5 1.7 3.0 3.7 2.8 0.5 0.6 4.7 6.9 7.8 7.1 3.8 5.2 7.5 4.8 1.9 0.5 1.7 0.5 0.9 1.1 1.2 0.5 0.6 0.7 6.1 10.0 13.2 13.1 9.2 9.0 18.3 24.2 18.7 22.2 22.5 20.9 24.7 29.7 23.5
0.0 0.4 2.3 1.7 0.9 0.4 0.9 0.5 0.4 3.0 3.1 6.0 10.0 12.3 8.6 2.7 4.4 4.4 6.1 2.4 1.2 2.9 1.9 2.4 1.5 3.9 2.8 5.8 3.1 11.6 6.4 7.2 9.6 10.1 10.8 16.5 18.9 28.1 31.2 27.5 25.1 28.4 27.6 28.6
0.1 0.1 0.6 1.6 1.8 0.2 0.6 1.2 4.3 4.3 7.1 6.3 8.1 5.0 4.0 2.2 2.4 4.5 4.1 0.5 1.5 4.5 2.0 4.6 5.5 6.1 6.4 13.0 13.3 14.7 14.0 13.6 13.3 12.0 12.8 18.8 18.9 34.9 21.8 21.8 24.8 25.1 33.4 22.7
0.1 0.2 0.2 0.4 0.9 0.8 1.3 0.1 0.2 0.7 6.1 3.3 4.5 6.8 3.1 6.9 9.8 2.1 2.2 5.8 6.1 17.5 14.2 8.7 10.0 6.5 7.1 15.9 15.5 17.2 15.5 17.0 17.2 18.8 9.1 8.8 25.6 21.2 17.9 29.2 17.6 24.4 24.9 21.4
0.4 0.2 0.3 1.5 0.6 0.8 0.1 0.2 0.4 0.6 0.8 0.8 0.8 0.8 1.5 2.3 7.7 4.3 7.2 6.8 6.6 5.6 8.7 6.7 6.5 7.2 17.8 18.7 17.4 17.7 17.9 16.0 17.9 21.0 14.9 20.7 18.5 28.3 24.9 20.9 26.9 27.5 29.0 25.3
0.1 0.6 0.4 0.1 0.4 0.4 0.6 0.8 1.5 1.7 2.1 5.2 3.3 11.3 8.6 5.2 4.7 4.6 6.3 6.6 4.8 6.3 5.4 13.0 18.3 18.6 17.5 13.1 15.3 15.9 12.5 9.0 14.2 14.5 18.0 16.9 15.9 12.7 17.1 16.1 23.9 30.4 38.2 41.5
0.7 0.2 1.0 0.8 0.7 1.0 1.1 1.2 3.3 3.9 4.7 9.0 7.5 7.7 4.8 8.3 10.3 6.6 8.1 12.2 12.2 12.9 12.9 15.9 14.0 10.4 9.0 15.0 12.7 11.7 11.8 12.3 10.5 10.7 23.9 26.3 24.9 33.6 30.0 29.8 34.4 35.7 32.2 29.4

GFSNGP_prec_sndepth_027.txt.gz
Snowfall_Accumulation
0.0 0.0 0.0 0.0 0.0 0.0 0.0 0.0 0.6 0.0 0.0 0.0 0.0 0.0 0.0 0.0 0.0 0.0 0.0 0.0 0.0 0.0 0.0 0.0 0.0 0.0 0.0 0.0 0.0 0.0 0.0 0.0 0.0 0.0 0.0 0.0 0.0 0.0 0.0 0.0 0.0 0.0 0.0 0.0
0.0 0.0 0.0 0.0 0.0 0.0 0.0 0.0 0.0 0.0 0.0 0.0 0.0 0.0 0.0 0.0 0.0 0.0 0.0 0.0 0.0 0.0 0.0 0.0 0.0 0.0 0.0 0.0 0.0 0.0 0.0 0.0 0.0 0.0 0.0 0.0 0.0 0.0 0.0 0.0 0.0 0.0 0.0 0.0
0.4 0.0 0.1 2.6 0.0 0.0 0.0 0.0 0.0 0.2 0.0 0.0 0.0 0.0 0.0 0.0 0.0 0.0 0.0 0.0 0.0 0.0 0.0 0.0 0.0 0.0 0.0 0.0 0.0 0.0 0.0 0.0 0.0 0.0 0.0 0.0 0.0 0.0 0.0 0.0 0.0 0.0 0.0 0.0
3.2 1.4 6.1 0.0 0.0 0.0 0.0 0.0 0.0 0.0 0.0 0.0 0.0 0.0 0.0 0.0 0.0 0.0 0.0 0.0 0.0 0.0 0.0 0.0 0.0 0.0 0.0 0.0 0.0 0.0 0.0 0.0 0.0 0.0 0.0 0.0 0.0 0.0 0.0 0.1 0.0 0.0 0.0 0.0
7.0 1.1 0.0 0.0 0.0 0.0 0.0 0.0 0.0 0.0 0.0 0.0 0.0 0.0 0.0 0.0 0.0 0.0 0.0 0.0 0.0 0.0 0.0 0.0 0.0 0.0 0.0 0.0 0.0 0.0 0.0 0.0 0.0 0.0 0.0 0.0 0.0 0.0 0.0 0.0 0.0 0.0 0.0 0.0
2.9 4.4 8.0 0.0 0.0 0.0 0.0 0.5 0.0 0.0 0.0 0.0 0.0 0.6 0.0 0.0 0.0 0.0 0.0 0.0 0.0 0.0 0.0 0.0 0.0 0.0 0.0 0.0 0.0 0.0 0.0 0.0 0.0 0.0 0.0 0.0 0.0 0.0 0.0 0.0 0.0 0.0 0.0 0.0
3.2 5.8 1.5 0.0 0.0 0.0 2.0 0.1 0.0 0.0 0.0 0.0 0.0 0.1 0.0 0.0 0.0 0.0 0.0 0.0 0.0 0.0 0.0 0.0 0.0 0.0 0.0 0.0 0.0 0.0 0.0 0.0 0.0 0.0 0.0 0.0 0.0 0.0 0.0 0.0 0.0 0.4 0.9 0.4
3.2 5.7 6.5 0.0 0.0 0.7 0.3 0.0 0.0 0.0 0.0 0.0 0.0 0.0 0.0 0.0 0.0 0.0 0.0 0.0 0.0 0.0 0.0 0.0 0.0 0.0 0.0 0.0 0.0 0.0 0.0 0.0 0.0 0.0 0.0 0.0 0.0 0.0 0.0 0.0 0.2 0.6 5.9 2.1
0.2 1.2 0.0 0.0 0.0 0.0 0.0 0.0 0.0 0.0 0.0 0.0 0.0 0.0 0.0 0.0 0.0 0.0 0.0 0.0 0.0 0.0 0.0 0.0 0.0 0.0 0.0 0.0 0.0 0.0 0.0 0.0 0.0 0.0 0.0 0.0 0.0 0.0 0.0 0.0 0.9 1.4 1.6 3.2
0.2 0.0 0.0 0.0 0.0 0.0 0.0 0.0 0.0 0.0 0.0 0.0 0.0 0.0 0.0 0.0 0.0 0.0 0.0 0.0 0.0 0.0 0.0 0.0 0.0 0.0 0.0 0.0 0.0 0.0 0.0 0.0 0.0 0.0 0.0 0.0 0.0 0.0 0.0 0.9 1.7 1.7 2.4 1.9
0.0 0.0 0.0 0.0 0.0 0.0 0.0 0.0 0.0 0.0 0.0 0.0 0.0 0.0 0.0 0.0 0.0 0.0 0.0 0.0 0.0 0.0 0.0 0.0 0.0 0.0 0.0 0.0 0.0 0.0 0.0 0.0 0.0 0.2 0.0 0.0 0.0 0.0 0.7 0.4 1.5 2.1 1.8 2.4
0.6 0.0 0.0 0.0 0.0 0.0 0.0 0.0 0.0 0.0 0.0 0.0 0.0 0.0 0.0 0.0 0.0 0.0 0.0 0.0 0.0 0.0 0.0 0.0 0.0 0.0 0.0 0.0 0.0 0.0 0.0 0.2 0.7 0.9 0.8 0.0 0.0 0.0 nan nan nan nan nan 5.6
0.0 0.0 0.0 0.0 0.0 0.0 0.0 0.0 0.0 0.0 0.0 0.0 0.0 0.0 0.0 0.0 0.0 nan 0.0 0.0 0.0 0.0 0.0 0.0 0.0 0.0 0.0 0.1 0.2 0.5 0.2 0.2 1.0 1.0 1.1 1.1 1.3 1.5 2.6 1.5 nan nan nan nan
0.0 0.0 0.0 0.0 0.0 0.0 0.0 0.0 0.0 0.0 0.0 0.0 0.0 0.0 0.0 0.0 0.0 0.0 0.0 0.0 0.0 0.0 0.0 0.0 0.0 0.0 0.0 0.0 0.2 0.7 0.4 0.3 1.4 1.2 1.3 1.8 3.0 3.2 3.4 4.8 8.0 6.4 nan nan
0.0 0.0 0.0 0.0 0.0 0.0 0.0 0.0 0.0 0.0 0.0 0.0 0.0 0.0 0.0 0.0 0.0 0.0 0.0 0.0 0.0 0.0 0.0 0.0 0.0 0.0 0.0 0.1 0.1 0.2 0.5 1.1 2.7 4.0 4.0 3.8 4.5 4.7 4.3 5.0 5.2 4.7 3.9 1.7
0.0 0.0 0.0 0.0 0.0 0.0 0.0 0.0 0.0 0.0 0.0 0.0 0.0 0.0 0.0 0.0 0.0 0.0 0.0 0.0 0.6 0.6 0.2 4.8 1.7 0.2 0.1 0.0 0.1 0.1 0.4 0.0 1.5 3.1 3.7 3.9 3.7 4.5 4.2 4.8 4.7 5.4 5.3 5.5
0.0 0.0 0.0 0.0 0.0 0.0 0.0 0.0 0.0 0.0 0.0 0.0 0.1 0.2 0.0 0.4 0.4 0.3 0.2 0.7 3.2 3.9 2.8 2.1 1.1 0.0 0.1 0.0 0.1 0.6 0.8 1.1 0.5 2.2 2.6 3.3 4.7 5.0 5.1 6.3 6.6 6.0 11.0 18.8
0.0 0.0 0.0 0.0 0.0 0.0 0.0 0.0 0.1 0.1 0.1 0.1 1.5 4.7 5.5 4.7 0.9 1.1 1.8 2.2 3.5 3.4 1.4 1.1 0.8 0.2 0.4 0.1 0.3 0.8 2.0 2.2 3.0 4.1 3.8 6.3 4.5 4.5 6.7 6.3 6.1 7.1 9.9 8.5
0.0 0.0 0.0 0.0 0.0 0.0 0.0 0.1 0.2 0.3 3.0 2.7 5.1 4.1 3.9 3.9 0.9 0.7 1.3 5.9 6.9 2.3 0.6 1.0 0.0 0.5 0.2 0.3 0.4 1.9 3.6 6.3 3.8 2.5 3.6 7.0 10.3 4.9 9.0 11.5 9.1 12.4 7.9 8.5
0.0 0.0 0.0 0.0 0.0 0.1 0.6 0.3 1.6 0.5 0.2 1.0 5.2 6.5 3.1 4.9 5.2 6.2 3.4 2.6 1.1 1.4 0.6 0.4 0.5 0.8 0.8 0.6 2.2 2.1 4.6 8.6 4.6 8.3 10.9 5.9 15.4 21.4 15.8 7.9 9.0 13.1 24.5 19.8
0.0 0.1 0.3 0.5 0.5 1.7 3.0 3.7 2.8 0.5 0.6 4.7 6.9 7.8 7.1 3.8 5.2 7.5 4.8 1.9 0.5 1.7 0.5 0.9 1.1 1.2 0.6 0.6 0.8 6.2 10.1 13.2 13.1 9.2 9.0 18.2 24.1 18.6 22.1 22.4 20.8 24.6 29.6 23.5
0.0 0.4 2.3 1.7 0.9 0.4 0.9 0.5 0.4 3.0 3.1 6.0 10.0 12.3 8.6 2.7 4.4 4.4 6.1 2.4 1.2 2.9 1.9 2.4 1.5 3.9 2.8 5.8 3.2 11.7 6.4 7.3 9.7 10.1 10.8 16.5 18.9 27.9 30.9 27.3 24.9 28.2 27.4 28.4
0.1 0.1 0.6 1.6 1.8 0.2 0.6 1.2 4.3 4.3 7.1 6.3 8.1 5.0 4.0 2.2 2.4 4.5 4.1 0.5 1.5 4.5 2.0 4.6 5.5 6.1 6.5 12.6 12.7 14.5 14.0 13.7 13.4 12.1 12.9 18.9 19.0 34.7 21.7 21.7 24.6 24.9 33.1 22.5
0.1 0.2 0.2 0.4 0.9 0.8 1.3 0.1 0.2 0.7 6.1 3.3 4.5 6.8 3.1 6.9 9.8 2.1 2.2 5.8 6.1 17.5 14.2 8.6 9.9 6.5 7.2 15.0 15.5 17.3 15.6 17.1 17.2 18.8 9.2 8.8 25.7 21.3 17.9 29.0 17.6 24.3 24.8 21.3
0.4 0.2 0.3 1.5 0.6 0.8 0.1 0.2 0.4 0.6 0.8 0.8 0.8 0.8 1.5 2.3 7.7 4.3 7.2 6.8 6.6 5.6 8.7 6.7 6.6 7.2 17.5 18.3 17.3 17.7 17.9 16.0 17.9 21.0 15.0 20.8 18.6 28.4 25.0 21.0 26.8 27.4 28.8 25.1
0.1 0.6 0.4 0.1 0.4 0.4 0.6 0.8 1.5 1.7 2.1 5.2 3.3 11.3 8.6 5.3 4.7 4.6 6.4 6.6 4.8 6.3 5.4 13.0 18.3 18.5 17.5 13.0 15.1 15.7 12.5 9.0 14.2 14.6 18.0 17.1 16.1 13.0 17.4 16.2 23.9 30.2 37.8 41.1
0.7 0.2 1.0 0.8 0.6 1.0 1.1 1.2 3.3 3.9 4.7 9.0 7.5 7.7 4.8 8.3 10.4 6.7 8.2 12.3 12.2 12.9 12.8 15.8 14.0 10.4 9.0 15.0 12.7 11.7 11.7 12.2 10.5 10.7 23.8 26.3 25.0 33.5 30.1 29.8 34.2 35.5 32.0 29.2

GFSNGP_prec_sndepth_030.txt.gz
Snowfall_Accumulation
0.0 0.0 0.0 0.0 0.0 0.0 0.0 0.0 0.6 0.0 0.0 0.0 0.0 0.0 0.0 0.0 0.0 0.0 0.0 0.0 0.0 0.0 0.0 0.0 0.0 0.0 0.0 0.0 0.0 0.0 0.0 0.0 0.0 0.0 0.0 0.0 0.0 0.0 0.0 0.0 0.0 0.0 0.0 0.0
0.0 0.0 0.0 0.0 0.0 0.0 0.0 0.0 0.0 0.0 0.0 0.0 0.0 0.0 0.0 0.0 0.0 0.0 0.0 0.0 0.0 0.0 0.0 0.0 0.0 0.0 0.0 0.0 0.0 0.0 0.0 0.0 0.0 0.0 0.0 0.0 0.0 0.0 0.0 0.0 0.0 0.0 0.0 0.0
0.4 0.0 0.1 2.6 0.0 0.0 0.0 0.0 0.0 0.2 0.0 0.0 0.0 0.0 0.0 0.0 0.0 0.0 0.0 0.0 0.0 0.0 0.0 0.0 0.0 0.0 0.0 0.0 0.0 0.0 0.0 0.0 0.0 0.0 0.0 0.0 0.0 0.0 0.0 0.0 0.0 0.0 0.0 0.0
3.2 1.4 6.1 0.0 0.0 0.0 0.0 0.0 0.0 0.0 0.0 0.0 0.0 0.0 0.0 0.0 0.0 0.0 0.0 0.0 0.0 0.0 0.0 0.0 0.0 0.0 0.0 0.0 0.0 0.0 0.0 0.0 0.0 0.0 0.0 0.0 0.0 0.0 0.0 0.1 0.0 0.0 0.0 0.0
7.0 1.1 0.0 0.0 0.0 0.0 0.0 0.0 0.0 0.0 0.0 0.0 0.0 0.0 0.0 0.0 0.0 0.0 0.0 0.0 0.0 0.0 0.0 0.0 0.0 0.0 0.0 0.0 0.0 0.0 0.0 0.0 0.0 0.0 0.0 0.0 0.0 0.0 0.0 0.0 0.0 0.0 0.0 0.0
2.9 4.4 8.0 0.0 0.0 0.0 0.0 0.5 0.0 0.0 0.0 0.0 0.0 0.6 0.0 0.0 0.0 0.0 0.0 0.0 0.0 0.0 0.0 0.0 0.0 0.0 0.0 0.0 0.0 0.0 0.0 0.0 0.0 0.0 0.0 0.0 0.0 0.0 0.0 0.0 0.0 0.0 0.0 0.0
3.2 5.8 1.5 0.0 0.0 0.0 2.0 0.1 0.0 0.0 0.0 0.0 0.0 0.1 0.0 0.0 0.0 0.0 0.0 0.0 0.0 0.0 0.0 0.0 0.0 0.0 0.0 0.0 0.0 0.0 0.0 0.0 0.0 0.0 0.0 0.0 0.0 0.0 0.0 0.0 0.0 0.4 0.9 0.4
3.2 5.7 6.5 0.0 0.0 0.7 0.3 0.0 0.0 0.0 0.0 0.0 0.0 0.0 0.0 0.0 0.0 0.0 0.0 0.0 0.0 0.0 0.0 0.0 0.0 0.0 0.0 0.0 0.0 0.0 0.0 0.0 0.0 0.0 0.0 0.0 0.0 0.0 0.0 0.0 0.2 0.6 5.9 2.1
0.2 1.2 0.0 0.0 0.0 0.0 0.0 0.0 0.0 0.0 0.0 0.0 0.0 0.0 0.0 0.0 0.0 0.0 0.0 0.0 0.0 0.0 0.0 0.0 0.0 0.0 0.0 0.0 0.0 0.0 0.0 0.0 0.0 0.0 0.0 0.0 0.0 0.0 0.0 0.0 0.9 1.4 1.6 3.2
0.2 0.0 0.0 0.0 0.0 0.0 0.0 0.0 0.0 0.0 0.0 0.0 0.0 0.0 0.0 0.0 0.0 0.0 0.0 0.0 0.0 0.0 0.0 0.0 0.0 0.0 0.0 0.0 0.0 0.0 0.0 0.0 0.0 0.0 0.0 0.0 0.0 0.0 0.0 0.9 1.7 1.7 2.4 1.9
0.0 0.0 0.0 0.0 0.0 0.0 0.0 0.0 0.0 0.0 0.0 0.0 0.0 0.0 0.0 0.0 0.0 0.0 0.0 0.0 0.0 0.0 0.0 0.0 0.0 0.0 0.0 0.0 0.0 0.0 0.0 0.0 0.0 0.2 0.0 0.0 0.0 0.0 0.7 0.4 1.5 2.1 1.8 2.4
0.6 0.0 0.0 0.0 0.0 0.0 0.0 0.0 0.0 0.0 0.0 0.0 0.0 0.0 0.0 0.0 0.0 0.0 0.0 0.0 0.0 0.0 0.0 0.0 0.0 0.0 0.0 0.0 0.0 0.0 0.0 0.2 0.7 0.9 0.8 0.0 0.0 0.0 nan nan nan nan nan 5.6
0.0 0.0 0.0 0.0 0.0 0.0 0.0 0.0 0.0 0.0 0.0 0.0 0.0 0.0 0.0 0.0 0.0 nan 0.0 0.0 0.0 0.0 0.0 0.0 0.0 0.0 0.0 0.1 0.2 0.5 0.2 0.2 1.0 1.1 1.1 1.2 1.3 1.5 2.6 1.5 nan nan nan nan
0.0 0.0 0.0 0.0 0.0 0.0 0.0 0.0 0.0 0.0 0.0 0.0 0.0 0.0 0.0 0.0 0.0 0.0 0.0 0.0 0.0 0.0 0.0 0.0 0.0 0.0 0.0 0.0 0.2 0.7 0.4 0.3 1.4 1.3 1.3 1.8 3.0 3.2 3.4 4.8 8.0 6.4 nan nan
0.0 0.0 0.0 0.0 0.0 0.0 0.0 0.0 0.0 0.0 0.0 0.0 0.0 0.0 0.0 0.0 0.0 0.0 0.0 0.0 0.0 0.0 0.0 0.0 0.0 0.0 0.0 0.1 0.1 0.2 0.5 1.2 2.7 4.0 4.0 3.8 4.5 4.7 4.3 5.0 5.3 4.7 3.9 1.7
0.0 0.0 0.0 0.0 0.0 0.0 0.0 0.0 0.0 0.1 0.0 0.0 0.0 0.0 0.0 0.0 0.0 0.0 0.0 0.0 0.6 0.6 0.2 4.8 1.7 0.2 0.1 0.0 0.1 0.1 0.4 0.1 1.5 3.1 3.7 3.9 3.7 4.6 4.2 4.9 4.7 5.4 5.3 5.5
0.0 0.0 0.0 0.0 0.0 0.0 0.0 0.0 0.0 0.0 0.0 0.0 0.1 0.2 0.0 0.4 0.5 0.3 0.2 0.8 3.2 3.9 2.8 2.1 1.1 0.0 0.1 0.0 0.1 0.6 0.8 1.2 0.5 2.2 2.6 3.3 4.7 5.0 5.1 6.4 6.7 6.1 11.0 18.7
0.0 0.0 0.0 0.0 0.0 0.1 0.1 0.0 0.1 0.1 0.1 0.1 1.5 4.7 5.5 4.7 0.9 1.1 1.8 2.2 3.6 3.4 1.4 1.1 0.8 0.2 0.4 0.1 0.3 0.8 2.1 2.3 3.1 4.2 3.8 6.3 4.5 4.5 6.7 6.3 6.1 7.1 9.9 8.5
0.0 0.0 0.0 0.0 0.0 0.0 0.0 0.1 0.2 0.3 3.0 2.7 5.1 4.1 3.9 4.0 0.9 0.7 1.3 5.9 6.9 2.3 0.6 1.0 0.0 0.5 0.3 0.3 0.4 1.9 3.6 6.4 3.9 2.5 3.6 7.0 10.3 4.9 9.0 11.5 9.1 12.3 7.9 8.5
0.0 0.0 0.0 0.0 0.0 0.1 0.6 0.3 1.6 0.5 0.2 1.0 5.2 6.5 3.1 4.9 5.2 6.3 3.4 2.6 1.1 1.4 0.6 0.4 0.5 0.8 0.8 0.6 2.2 2.1 4.7 8.7 4.7 8.3 11.0 6.0 15.4 21.3 15.8 7.9 9.0 13.1 24.4 19.7
0.0 0.1 0.3 0.5 0.5 1.7 3.0 3.7 2.8 0.5 0.6 4.7 7.0 7.8 7.1 3.8 5.2 7.5 4.8 1.9 0.5 1.7 0.5 0.9 1.1 1.2 0.6 0.6 0.8 6.2 10.1 13.2 13.2 9.3 9.1 18.2 24.0 18.6 22.1 22.3 20.8 24.5 29.4 23.4
0.0 0.4 2.3 1.7 0.9 0.4 0.9 0.5 0.4 3.0 3.1 6.0 10.0 12.3 8.6 2.7 4.4 4.4 6.1 2.4 1.2 2.9 1.9 2.4 1.5 3.9 2.8 5.8 3.2 11.7 6.5 7.3 9.7 10.2 10.9 16.5 19.0 27.9 30.8 27.2 24.9 28.1 27.3 28.3
0.1 0.1 0.6 1.6 1.8 0.2 0.6 1.2 4.3 4.3 7.1 6.3 8.1 5.0 4.0 2.2 2.5 4.5 4.1 0.5 1.5 4.5 2.0 4.6 5.5 6.1 6.5 12.6 12.7 14.5 14.0 13.7 13.5 12.2 13.0 18.9 19.1 34.5 21.8 21.7 24.5 24.9 32.9 22.4
0.1 0.2 0.2 0.4 0.9 0.8 1.3 0.1 0.2 0.7 6.1 3.3 4.5 6.8 3.1 6.9 9.8 2.1 2.2 5.8 6.1 17.5 14.2 8.6 9.9 6.5 7.2 15.0 15.5 17.2 15.5 17.1 17.2 18.8 9.2 8.9 25.7 21.3 18.1 29.0 17.8 24.2 24.8 21.3
0.4 0.2 0.3 1.5 0.6 0.8 0.1 0.2 0.4 0.6 0.8 0.8 0.8 0.8 1.5 2.3 7.7 4.3 7.2 6.8 6.7 5.8 8.8 6.8 6.6 7.2 17.5 18.3 17.3 17.6 17.8 16.0 17.9 21.0 15.1 20.8 18.6 28.3 25.0 21.1 26.8 27.4 28.8 25.1
0.1 0.6 0.4 0.1 0.4 0.4 0.6 0.8 1.5 1.7 2.1 5.2 3.3 11.3 8.6 5.3 4.7 4.6 6.4 6.8 5.1 6.4 5.7 13.2 18.3 18.5 17.4 13.0 15.1 15.6 12.5 9.0 14.2 14.6 17.9 17.0 16.1 13.0 17.4 16.3 24.0 30.3 37.7 40.8
0.7 0.2 1.0 0.8 0.6 1.0 1.1 1.2 3.3 3.8 4.7 8.9 7.5 7.6 4.9 8.2 10.3 6.7 8.2 12.6 12.5 13.1 13.1 16.0 14.0 10.3 9.0 15.0 12.7 11.7 11.7 12.2 10.5 10.7 23.7 26.2 24.9 33.3 29.9 29.8 34.4 35.5 32.0 29.2

GFSNGP_prec_sndepth_033.txt.gz
Snowfall_Accumulation
0.0 0.0 0.0 0.0 0.0 0.0 0.0 0.0 0.6 0.0 0.0 0.0 0.0 0.0 0.0 0.0 0.0 0.0 0.0 0.0 0.0 0.0 0.0 0.0 0.0 0.0 0.0 0.0 0.0 0.0 0.0 0.0 0.0 0.0 0.0 0.0 0.0 0.0 0.0 0.0 0.0 0.0 0.0 0.0
0.0 0.0 0.0 0.0 0.0 0.0 0.0 0.0 0.0 0.0 0.0 0.0 0.0 0.0 0.0 0.0 0.0 0.0 0.0 0.0 0.0 0.0 0.0 0.0 0.0 0.0 0.0 0.0 0.0 0.0 0.0 0.0 0.0 0.0 0.0 0.0 0.0 0.0 0.0 0.0 0.0 0.0 0.0 0.0
0.4 0.0 0.1 2.6 0.0 0.0 0.0 0.0 0.0 0.2 0.0 0.0 0.0 0.0 0.0 0.0 0.0 0.0 0.0 0.0 0.0 0.0 0.0 0.0 0.0 0.0 0.0 0.0 0.0 0.0 0.0 0.0 0.0 0.0 0.0 0.0 0.0 0.0 0.0 0.0 0.0 0.0 0.0 0.0
3.2 1.4 6.0 0.0 0.0 0.0 0.0 0.0 0.0 0.0 0.0 0.0 0.0 0.0 0.0 0.0 0.0 0.0 0.0 0.0 0.0 0.0 0.0 0.0 0.0 0.0 0.0 0.0 0.0 0.0 0.0 0.0 0.0 0.0 0.0 0.0 0.0 0.0 0.0 0.1 0.0 0.0 0.0 0.0
7.0 1.1 0.0 0.0 0.0 0.0 0.0 0.0 0.0 0.0 0.0 0.0 0.0 0.0 0.0 0.0 0.0 0.0 0.0 0.0 0.0 0.0 0.0 0.0 0.0 0.0 0.0 0.0 0.0 0.0 0.0 0.0 0.0 0.0 0.0 0.0 0.0 0.0 0.0 0.0 0.0 0.0 0.0 0.0
2.9 4.4 8.0 0.0 0.0 0.0 0.0 0.5 0.0 0.0 0.0 0.0 0.0 0.5 0.0 0.0 0.0 0.0 0.0 0.0 0.0 0.0 0.0 0.0 0.0 0.0 0.0 0.0 0.0 0.0 0.0 0.0 0.0 0.0 0.0 0.0 0.0 0.0 0.0 0.0 0.0 0.0 0.0 0.0
3.2 5.7 1.4 0.0 0.0 0.0 1.9 0.1 0.0 0.0 0.0 0.0 0.0 0.1 0.0 0.0 0.0 0.0 0.0 0.0 0.0 0.0 0.0 0.0 0.0 0.0 0.0 0.0 0.0 0.0 0.0 0.0 0.0 0.0 0.0 0.0 0.0 0.0 0.0 0.0 0.0 0.3 0.8 0.3
3.2 5.7 6.5 0.0 0.0 0.7 0.3 0.0 0.0 0.0 0.0 0.0 0.0 0.0 0.0 0.0 0.0 0.0 0.0 0.0 0.0 0.0 0.0 0.0 0.0 0.0 0.0 0.0 0.0 0.0 0.0 0.0 0.0 0.0 0.0 0.0 0.0 0.0 0.0 0.0 0.1 0.5 5.7 1.9
0.2 1.1 0.0 0.0 0.0 0.0 0.0 0.0 0.0 0.0 0.0 0.0 0.0 0.0 0.0 0.0 0.0 0.0 0.0 0.0 0.0 0.0 0.0 0.0 0.0 0.0 0.0 0.0 0.0 0.0 0.0 0.0 0.0 0.0 0.0 0.0 0.0 0.0 0.0 0.0 0.9 1.2 1.5 3.1
0.2 0.0 0.0 0.0 0.0 0.0 0.0 0.0 0.0 0.0 0.0 0.0 0.0 0.0 0.0 0.0 0.0 0.0 0.0 0.0 0.0 0.0 0.0 0.0 0.0 0.0 0.0 0.0 0.0 0.0 0.0 0.0 0.0 0.0 0.0 0.0 0.0 0.0 0.0 0.9 1.6 1.6 2.3 1.8
0.0 0.0 0.0 0.0 0.0 0.0 0.0 0.0 0.0 0.0 0.0 0.0 0.0 0.0 0.0 0.0 0.0 0.0 0.0 0.0 0.0 0.0 0.0 0.0 0.0 0.0 0.0 0.0 0.0 0.0 0.0 0.0 0.0 0.2 0.0 0.0 0.0 0.0 0.7 0.4 1.4 2.0 1.7 2.3
0.6 0.0 0.0 0.0 0.0 0.0 0.0 0.0 0.0 0.0 0.0 0.0 0.0 0.0 0.0 0.0 0.0 0.0 0.0 0.0 0.0 0.0 0.0 0.0 0.0 0.0 0.0 0.0 0.0 0.0 0.0 0.2 0.6 0.9 0.8 0.0 0.0 0.0 nan nan nan nan nan 5.3
0.0 0.0 0.0 0.0 0.0 0.0 0.0 0.0 0.0 0.0 0.0 0.0 0.0 0.0 0.0 0.0 0.0 nan 0.0 0.0 0.0 0.0 0.0 0.0 0.0 0.0 0.0 0.1 0.2 0.5 0.2 0.2 1.0 1.1 1.1 1.1 1.3 1.5 2.5 1.4 nan nan nan nan
0.0 0.0 0.0 0.0 0.0 0.0 0.0 0.0 0.0 0.0 0.0 0.0 0.0 0.0 0.0 0.0 0.0 0.0 0.0 0.0 0.0 0.0 0.0 0.0 0.0 0.0 0.0 0.0 0.2 0.7 0.4 0.3 1.4 1.2 1.2 1.8 2.8 3.0 3.2 4.6 7.7 6.1 nan nan
0.0 0.0 0.0 0.0 0.0 0.0 0.0 0.0 0.0 0.0 0.0 0.1 0.0 0.0 0.0 0.0 0.0 0.0 0.0 0.0 0.0 0.0 0.0 0.0 0.0 0.0 0.0 0.0 0.1 0.1 0.5 1.1 2.5 3.9 3.9 3.7 4.3 4.5 4.2 4.8 5.1 4.5 3.7 1.6
0.0 0.0 0.0 0.0 0.0 0.0 0.0 0.0 0.0 0.3 0.2 0.1 0.0 0.0 0.0 0.0 0.0 0.0 0.0 0.0 0.6 0.6 0.1 4.8 1.7 0.2 0.1 0.0 0.1 0.1 0.4 0.0 1.5 3.0 3.6 3.8 3.6 4.5 4.1 4.8 4.6 5.3 5.1 5.2
0.0 0.0 0.0 0.0 0.0 0.0 0.0 0.1 0.2 0.1 0.0 0.0 0.1 0.2 0.0 0.4 0.5 0.3 0.2 0.8 3.2 3.9 2.8 2.1 1.0 0.0 0.1 0.0 0.1 0.5 0.8 1.2 0.5 2.2 2.6 3.2 4.6 4.9 4.9 6.2 6.6 6.0 10.8 17.9
0.0 0.0 0.0 0.0 0.1 0.3 0.3 0.1 0.1 0.1 0.1 0.1 1.5 4.7 5.5 4.7 0.9 1.1 1.8 2.2 3.6 3.4 1.4 1.1 0.8 0.1 0.3 0.1 0.3 0.8 2.0 2.2 3.0 4.1 3.7 6.3 4.5 4.4 6.5 6.1 5.9 6.9 9.6 8.2
0.0 0.0 0.0 0.0 0.0 0.0 0.0 0.1 0.2 0.2 3.0 2.7 5.1 4.1 3.9 3.9 0.9 0.7 1.3 5.9 6.9 2.3 0.6 1.0 0.0 0.5 0.2 0.3 0.4 1.9 3.5 6.2 3.7 2.5 3.6 7.0 10.3 4.9 9.0 11.4 9.0 12.2 7.7 8.4
0.0 0.0 0.0 0.0 0.0 0.1 0.6 0.3 1.6 0.4 0.2 1.0 5.2 6.5 3.1 4.9 5.2 6.2 3.4 2.6 1.1 1.4 0.5 0.4 0.5 0.7 0.8 0.6 2.2 2.1 4.6 8.6 4.7 8.2 10.9 5.9 15.2 21.2 15.6 7.9 9.0 13.0 24.1 19.6
0.0 0.0 0.3 0.5 0.5 1.7 3.0 3.7 2.8 0.5 0.6 4.7 6.9 7.8 7.1 3.8 5.2 7.4 4.8 1.9 0.5 1.7 0.5 0.9 1.1 1.2 0.5 0.6 0.8 6.1 9.9 12.9 12.8 9.2 9.2 18.0 23.7 18.5 22.0 22.1 20.6 24.2 29.2 23.2
0.0 0.4 2.3 1.7 0.9 0.4 0.9 0.5 0.4 3.0 3.1 6.0 10.0 12.3 8.6 2.7 4.4 4.4 6.1 2.4 1.2 2.9 1.8 2.3 1.4 3.9 2.8 5.8 3.1 11.4 6.4 7.4 9.8 10.3 11.0 16.1 18.7 27.3 29.9 26.4 24.6 27.5 26.8 28.0
0.1 0.1 0.6 1.6 1.8 0.2 0.6 1.2 4.3 4.3 7.1 6.3 8.1 5.0 4.0 2.1 2.4 4.5 4.1 0.5 1.4 4.5 2.0 4.5 5.4 6.1 6.4 12.2 12.3 14.0 13.6 13.4 13.2 12.0 12.7 18.4 18.5 33.5 21.0 20.9 23.7 23.9 32.0 22.0
0.1 0.2 0.2 0.4 0.9 0.8 1.3 0.1 0.2 0.7 6.1 3.3 4.5 6.8 3.1 6.9 9.7 2.1 2.1 5.8 6.1 17.4 14.2 8.6 10.0 6.5 7.2 15.0 15.4 17.1 15.5 17.0 17.2 18.8 9.3 8.9 25.6 20.6 17.4 27.8 17.5 23.0 23.9 20.8
0.4 0.2 0.3 1.5 0.6 0.8 0.1 0.2 0.4 0.6 0.8 0.8 0.8 0.8 1.5 2.2 7.8 4.3 7.2 6.8 6.7 5.9 9.0 6.9 6.7 7.3 17.5 18.2 17.2 17.5 17.8 15.9 17.8 20.9 15.0 20.8 18.6 28.3 24.7 20.8 26.1 26.7 27.6 24.2
0.1 0.6 0.4 0.1 0.4 0.4 0.6 0.8 1.5 1.7 2.1 5.2 3.3 11.3 8.6 5.3 4.6 4.5 6.3 6.7 5.0 6.4 5.8 13.4 18.5 18.6 17.5 13.0 15.0 15.6 12.5 9.0 14.2 14.5 17.9 17.0 16.1 13.0 17.4 16.3 23.8 28.9 36.0 38.9
0.7 0.2 1.0 0.8 0.6 1.0 1.1 1.2 3.3 3.8 4.7 8.9 7.6 7.6 4.9 8.2 10.3 6.7 8.2 12.6 12.3 13.3 13.4 16.4 14.4 10.5 9.1 15.0 12.7 11.7 11.7 12.2 10.5 10.7 23.6 26.1 24.8 33.1 29.8 29.7 34.2 33.6 30.4 28.5

GFSNGP_prec_sndepth_039.txt.gz
Snowfall_Accumulation
0.0 0.0 0.0 0.0 0.0 0.0 0.0 0.0 0.3 0.0 0.0 0.0 0.0 0.0 0.0 0.0 0.0 0.0 0.0 0.0 0.0 0.0 0.0 0.0 0.0 0.0 0.0 0.0 0.0 0.0 0.0 0.0 0.0 0.0 0.0 0.0 0.0 0.0 0.0 0.0 0.0 0.0 0.0 0.0
0.0 0.0 0.0 0.0 0.0 0.0 0.0 0.0 0.0 0.0 0.0 0.0 0.0 0.0 0.0 0.0 0.0 0.0 0.0 0.0 0.0 0.0 0.0 0.0 0.0 0.0 0.0 0.0 0.0 0.0 0.0 0.0 0.0 0.0 0.0 0.0 0.0 0.0 0.0 0.0 0.0 0.0 0.0 0.0
0.1 0.0 0.0 1.3 0.0 0.0 0.0 0.0 0.0 0.1 0.0 0.0 0.0 0.0 0.0 0.0 0.0 0.0 0.0 0.0 0.0 0.0 0.0 0.0 0.0 0.0 0.0 0.0 0.0 0.0 0.0 0.0 0.0 0.0 0.0 0.0 0.0 0.0 0.0 0.0 0.0 0.0 0.0 0.0
1.8 0.9 3.5 0.0 0.0 0.0 0.0 0.0 0.0 0.0 0.0 0.0 0.0 0.0 0.0 0.0 0.0 0.0 0.0 0.0 0.0 0.0 0.0 0.0 0.0 0.0 0.0 0.0 0.0 0.0 0.0 0.0 0.0 0.0 0.0 0.0 0.0 0.0 0.0 0.0 0.0 0.0 0.0 0.0
4.4 0.7 0.0 0.0 0.0 0.0 0.0 0.0 0.0 0.0 0.0 0.0 0.0 0.0 0.0 0.0 0.0 0.0 0.0 0.0 0.0 0.0 0.0 0.0 0.0 0.0 0.0 0.0 0.0 0.0 0.0 0.0 0.0 0.0 0.0 0.0 0.0 0.0 0.0 0.0 0.0 0.0 0.0 0.0
1.5 1.8 5.1 0.0 0.0 0.0 0.0 0.3 0.0 0.0 0.0 0.0 0.0 0.3 0.0 0.0 0.0 0.0 0.0 0.0 0.0 0.0 0.0 0.0 0.0 0.0 0.0 0.0 0.0 0.0 0.0 0.0 0.0 0.0 0.0 0.0 0.0 0.0 0.0 0.0 0.0 0.0 0.0 0.0
1.8 3.1 0.8 0.0 0.0 0.0 1.2 0.1 0.0 0.0 0.0 0.0 0.0 0.0 0.0 0.0 0.0 0.0 0.0 0.0 0.0 0.0 0.0 0.0 0.0 0.0 0.0 0.0 0.0 0.0 0.0 0.0 0.0 0.0 0.0 0.0 0.0 0.0 0.0 0.0 0.0 0.1 0.2 0.1
1.9 3.2 4.0 0.0 0.0 0.2 0.2 0.0 0.0 0.0 0.0 0.0 0.0 0.0 0.0 0.0 0.0 0.0 0.0 0.0 0.0 0.0 0.0 0.0 0.0 0.0 0.0 0.0 0.0 0.0 0.0 0.0 0.0 0.0 0.0 0.0 0.0 0.0 0.0 0.0 0.0 0.2 3.0 0.8
0.1 0.7 0.0 0.0 0.0 0.0 0.0 0.0 0.0 0.0 0.0 0.0 0.0 0.0 0.0 0.0 0.0 0.0 0.0 0.0 0.0 0.0 0.0 0.0 0.0 0.0 0.0 0.0 0.0 0.0 0.0 0.0 0.0 0.0 0.0 0.0 0.0 0.0 0.0 0.0 0.5 0.4 1.0 1.9
0.1 0.0 0.0 0.0 0.0 0.0 0.0 0.0 0.0 0.0 0.0 0.0 0.0 0.0 0.0 0.0 0.0 0.0 0.0 0.0 0.0 0.0 0.0 0.0 0.0 0.0 0.0 0.0 0.0 0.0 0.0 0.0 0.0 0.0 0.0 0.0 0.0 0.0 0.0 0.6 1.1 1.1 1.5 1.2
0.0 0.0 0.0 0.0 0.0 0.0 0.0 0.0 0.0 0.0 0.0 0.0 0.0 0.0 0.0 0.0 0.0 0.0 0.0 0.0 0.0 0.0 0.0 0.0 0.0 0.0 0.0 0.0 0.0 0.0 0.0 0.0 0.0 0.1 0.0 0.0 0.0 0.0 0.5 0.2 0.9 1.3 1.2 1.5
0.4 0.0 0.0 0.0 0.0 0.0 0.0 0.0 0.0 0.0 0.0 0.0 0.0 0.0 0.0 0.0 0.0 0.0 0.0 0.0 0.0 0.0 0.0 0.0 0.0 0.0 0.0 0.0 0.0 0.0 0.0 0.1 0.4 0.5 0.5 0.0 0.0 0.0 nan nan nan nan nan 3.1
0.0 0.0 0.0 0.0 0.0 0.0 0.0 0.0 0.0 0.0 0.0 0.0 0.0 0.0 0.0 0.0 0.0 nan 0.0 0.0 0.0 0.0 0.0 0.0 0.0 0.0 0.0 0.0 0.1 0.1 0.1 0.1 0.6 0.7 0.8 0.8 0.9 1.0 1.7 0.9 nan nan nan nan
0.0 0.0 0.0 0.0 0.0 0.0 0.0 0.0 0.0 0.0 0.0 0.0 0.0 0.0 0.0 0.0 0.0 0.0 0.0 0.0 0.0 0.0 0.0 0.0 0.0 0.0 0.0 0.0 0.1 0.2 0.1 0.0 0.9 0.8 0.9 1.2 1.8 2.0 2.1 3.1 5.3 4.1 nan nan
0.0 0.0 0.0 0.0 0.0 0.0 0.0 0.0 0.0 0.0 0.0 0.1 0.1 0.0 0.0 0.0 0.0 0.0 0.0 0.0 0.0 0.0 0.0 0.0 0.0 0.0 0.0 0.0 0.0 0.0 0.3 0.7 1.3 2.4 2.7 2.6 2.9 3.0 2.8 3.3 3.6 3.1 2.4 1.0
0.0 0.0 0.0 0.0 0.0 0.0 0.0 0.0 0.0 0.3 0.3 0.1 0.0 0.0 0.0 0.0 0.0 0.0 0.0 0.0 0.3 0.3 0.0 3.5 0.7 0.1 0.0 0.0 0.0 0.0 0.2 0.0 0.7 1.8 2.4 2.7 2.6 3.2 2.7 3.3 3.1 3.8 3.5 3.5
0.0 0.0 0.0 0.0 0.0 0.0 0.1 0.1 0.1 0.0 0.0 0.0 0.0 0.1 0.0 0.2 0.2 0.1 0.1 0.3 1.9 2.4 1.5 0.9 0.4 0.0 0.0 0.0 0.0 0.3 0.5 0.7 0.0 1.4 1.7 2.1 3.1 3.3 3.2 4.0 4.3 3.9 7.1 11.6
0.0 0.0 0.0 0.0 0.0 0.1 0.1 0.1 0.0 0.0 0.0 0.0 0.8 3.3 4.2 3.6 0.4 0.5 0.7 1.0 2.2 2.3 0.4 0.3 0.2 0.0 0.1 0.0 0.1 0.4 1.2 1.4 1.9 2.8 2.4 4.3 3.2 2.9 4.2 4.0 3.8 4.5 6.1 5.2
0.0 0.0 0.0 0.0 0.0 0.0 0.0 0.0 0.1 0.1 2.1 1.7 3.8 2.7 2.6 2.8 0.3 0.2 0.5 4.7 5.7 1.1 0.2 0.2 0.0 0.1 0.1 0.1 0.2 1.2 2.4 4.6 2.8 1.9 2.6 6.2 7.6 3.5 6.3 7.8 6.1 8.3 5.0 5.4
0.0 0.0 0.0 0.0 0.0 0.1 0.2 0.1 0.8 0.1 0.1 0.5 4.1 5.0 1.9 3.7 3.8 4.9 2.2 1.5 0.4 0.8 0.1 0.1 0.1 0.2 0.2 0.2 1.6 1.4 3.3 6.6 3.7 6.1 7.9 4.2 11.0 15.3 10.5 6.8 6.1 9.0 17.3 13.6
0.0 0.0 0.1 0.2 0.2 0.9 2.3 2.9 2.0 0.2 0.2 4.0 5.9 6.7 6.5 3.0 4.1 6.1 3.1 1.2 0.1 0.5 0.2 0.2 0.5 0.8 0.4 0.4 0.6 4.1 7.0 9.6 9.8 6.7 6.7 13.5 17.9 13.4 15.6 16.3 15.2 17.9 21.5 16.7
0.0 0.1 1.6 1.0 0.3 0.2 0.4 0.2 0.2 2.6 2.6 5.8 9.9 12.2 8.5 1.8 3.3 3.2 4.7 1.5 0.7 2.1 1.2 1.4 0.9 3.0 2.2 4.8 2.3 8.7 4.7 5.4 7.2 7.4 8.1 12.2 13.9 20.7 22.2 19.3 18.2 20.2 19.8 20.7
0.0 0.0 0.3 1.1 1.3 0.1 0.2 0.7 4.0 3.8 7.0 6.2 8.0 4.5 3.1 1.4 1.6 3.4 3.3 0.1 1.0 3.5 1.4 3.0 4.4 5.2 5.5 9.5 9.6 11.0 11.0 10.9 10.6 9.5 10.1 15.8 15.2 26.7 16.1 15.4 17.2 17.3 23.7 15.7
0.0 0.1 0.1 0.2 0.4 0.4 0.7 0.1 0.1 0.3 6.0 2.9 4.4 6.7 2.5 5.6 7.5 1.3 1.4 5.3 5.5 14.9 11.6 6.6 8.5 5.8 6.3 12.8 13.1 14.7 13.3 14.7 15.7 18.5 8.8 8.8 25.1 19.7 15.7 23.8 14.7 17.9 18.7 16.0
0.2 0.1 0.1 1.0 0.3 0.5 0.1 0.1 0.2 0.3 0.4 0.5 0.5 0.4 1.0 1.5 7.2 3.2 5.6 5.3 6.2 4.9 7.2 6.3 6.2 7.1 16.2 17.1 16.4 17.4 17.2 15.8 17.8 20.7 14.8 20.6 18.4 27.9 24.4 20.1 25.1 24.2 24.5 20.1
0.1 0.4 0.3 0.1 0.3 0.3 0.5 0.6 1.2 1.3 1.7 4.9 2.8 10.9 7.8 4.5 3.9 3.7 5.5 6.4 4.4 6.1 5.4 13.4 18.8 19.0 17.9 13.5 15.5 16.0 12.8 9.3 14.3 14.5 17.7 16.8 15.9 12.9 17.2 16.1 23.4 28.1 33.3 34.3
0.5 0.2 0.7 0.6 0.5 0.8 0.9 1.0 3.1 3.7 4.6 8.7 7.4 7.4 4.5 7.9 10.2 6.7 8.2 12.5 12.1 13.3 13.6 16.7 14.7 10.7 9.7 15.6 13.3 12.2 12.2 12.5 10.6 10.7 23.3 25.7 24.4 32.5 29.3 29.2 33.6 33.1 29.5 26.4

GFSNGP_prec_sndepth_042.txt.gz
Snowfall_Accumulation
0.0 0.0 0.0 0.0 0.0 0.0 0.0 0.0 0.2 0.0 0.0 0.0 0.0 0.0 0.0 0.0 0.0 0.0 0.0 0.0 0.0 0.0 0.0 0.0 0.0 0.0 0.0 0.0 0.0 0.0 0.0 0.0 0.0 0.0 0.0 0.0 0.0 0.0 0.0 0.0 0.0 0.0 0.0 0.0
0.0 0.0 0.0 0.0 0.0 0.0 0.0 0.0 0.0 0.0 0.0 0.0 0.0 0.0 0.0 0.0 0.0 0.0 0.0 0.0 0.0 0.0 0.0 0.0 0.0 0.0 0.0 0.0 0.0 0.0 0.0 0.0 0.0 0.0 0.0 0.0 0.0 0.0 0.0 0.0 0.0 0.0 0.0 0.0
0.1 0.0 0.0 0.9 0.0 0.0 0.0 0.0 0.0 0.1 0.0 0.0 0.0 0.0 0.0 0.0 0.0 0.0 0.0 0.0 0.0 0.0 0.0 0.0 0.0 0.0 0.0 0.0 0.0 0.0 0.0 0.0 0.0 0.0 0.0 0.0 0.0 0.0 0.0 0.0 0.0 0.0 0.0 0.0
1.4 0.7 2.7 0.0 0.0 0.0 0.0 0.0 0.0 0.0 0.0 0.0 0.0 0.0 0.0 0.0 0.0 0.0 0.0 0.0 0.0 0.0 0.0 0.0 0.0 0.0 0.0 0.0 0.0 0.0 0.0 0.0 0.0 0.0 0.0 0.0 0.0 0.0 0.0 0.0 0.0 0.0 0.0 0.0
3.5 0.5 0.0 0.0 0.0 0.0 0.0 0.0 0.0 0.0 0.0 0.0 0.0 0.0 0.0 0.0 0.0 0.0 0.0 0.0 0.0 0.0 0.0 0.0 0.0 0.0 0.0 0.0 0.0 0.0 0.0 0.0 0.0 0.0 0.0 0.0 0.0 0.0 0.0 0.0 0.0 0.0 0.0 0.0
1.2 1.1 4.2 0.0 0.0 0.0 0.0 0.2 0.0 0.0 0.0 0.0 0.0 0.3 0.0 0.0 0.0 0.0 0.0 0.0 0.0 0.0 0.0 0.0 0.0 0.0 0.0 0.0 0.0 0.0 0.0 0.0 0.0 0.0 0.0 0.0 0.0 0.0 0.0 0.0 0.0 0.0 0.0 0.0
1.3 2.3 0.7 0.0 0.0 0.0 0.9 0.1 0.0 0.0 0.0 0.0 0.0 0.0 0.0 0.0 0.0 0.0 0.0 0.0 0.0 0.0 0.0 0.0 0.0 0.0 0.0 0.0 0.0 0.0 0.0 0.0 0.0 0.0 0.0 0.0 0.0 0.0 0.0 0.0 0.0 0.1 0.2 0.1
1.4 2.5 3.2 0.0 0.0 0.1 0.1 0.0 0.0 0.0 0.0 0.0 0.0 0.0 0.0 0.0 0.0 0.0 0.0 0.0 0.0 0.0 0.0 0.0 0.0 0.0 0.0 0.0 0.0 0.0 0.0 0.0 0.0 0.0 0.0 0.0 0.0 0.0 0.0 0.0 0.0 0.1 2.4 0.7
0.1 0.5 0.0 0.0 0.0 0.0 0.0 0.0 0.0 0.0 0.0 0.0 0.0 0.0 0.0 0.0 0.0 0.0 0.0 0.0 0.0 0.0 0.0 0.0 0.0 0.0 0.0 0.0 0.0 0.0 0.0 0.0 0.0 0.0 0.0 0.0 0.0 0.0 0.0 0.0 0.5 0.3 0.9 1.7
0.0 0.0 0.0 0.0 0.0 0.0 0.0 0.0 0.0 0.0 0.0 0.0 0.0 0.0 0.0 0.0 0.0 0.0 0.0 0.0 0.0 0.0 0.0 0.0 0.0 0.0 0.0 0.0 0.0 0.0 0.0 0.0 0.0 0.0 0.0 0.0 0.0 0.0 0.0 0.5 1.0 1.0 1.4 1.1
0.0 0.0 0.0 0.0 0.0 0.0 0.0 0.0 0.0 0.0 0.0 0.0 0.0 0.0 0.0 0.0 0.0 0.0 0.0 0.0 0.0 0.0 0.0 0.0 0.0 0.0 0.0 0.0 0.0 0.0 0.0 0.0 0.0 0.1 0.0 0.0 0.0 0.0 0.4 0.2 0.8 1.1 1.0 1.3
0.3 0.0 0.0 0.0 0.0 0.0 0.0 0.0 0.0 0.0 0.0 0.0 0.0 0.0 0.0 0.0 0.0 0.0 0.0 0.0 0.0 0.0 0.0 0.0 0.0 0.0 0.0 0.0 0.0 0.0 0.0 0.1 0.3 0.5 0.4 0.0 0.0 0.0 nan nan nan nan nan 2.7
0.0 0.0 0.0 0.0 0.0 0.0 0.0 0.0 0.0 0.0 0.0 0.0 0.0 0.0 0.0 0.0 0.0 nan 0.0 0.0 0.0 0.0 0.0 0.0 0.0 0.0 0.0 0.0 0.1 0.1 0.0 0.1 0.5 0.6 0.7 0.7 0.8 0.9 1.5 0.8 nan nan nan nan
0.0 0.0 0.0 0.0 0.0 0.0 0.0 0.0 0.0 0.0 0.0 0.0 0.0 0.0 0.0 0.0 0.0 0.0 0.0 0.0 0.0 0.0 0.0 0.0 0.0 0.0 0.0 0.0 0.0 0.1 0.1 0.0 0.7 0.7 0.7 1.1 1.6 1.7 1.8 2.7 4.7 3.6 nan nan
0.0 0.0 0.0 0.0 0.0 0.0 0.0 0.0 0.0 0.0 0.0 0.1 0.0 0.0 0.0 0.0 0.0 0.0 0.0 0.0 0.0 0.0 0.0 0.0 0.0 0.0 0.0 0.0 0.0 0.0 0.2 0.6 1.1 1.9 2.2 2.2 2.5 2.6 2.5 3.0 3.2 2.8 2.1 0.9
0.0 0.0 0.0 0.0 0.0 0.0 0.0 0.0 0.0 0.2 0.2 0.1 0.0 0.0 0.0 0.0 0.0 0.0 0.0 0.0 0.3 0.3 0.0 3.4 0.6 0.0 0.0 0.0 0.0 0.0 0.2 0.0 0.6 1.5 1.9 2.2 2.2 2.8 2.4 2.9 2.7 3.3 3.1 3.1
0.0 0.0 0.0 0.0 0.0 0.0 0.0 0.1 0.0 0.0 0.0 0.0 0.0 0.0 0.0 0.1 0.1 0.1 0.1 0.2 1.5 2.0 1.2 0.6 0.3 0.0 0.0 0.0 0.0 0.3 0.4 0.6 0.0 1.1 1.5 1.9 2.7 2.9 2.7 3.5 3.8 3.5 6.3 10.2
0.0 0.0 0.0 0.0 0.0 0.1 0.1 0.0 0.0 0.0 0.0 0.0 0.6 2.9 3.8 3.3 0.3 0.3 0.5 0.7 1.8 1.9 0.3 0.2 0.1 0.0 0.1 0.0 0.0 0.4 1.0 1.1 1.6 2.4 2.1 3.7 2.8 2.5 3.8 3.5 3.5 4.1 5.5 4.7
0.0 0.0 0.0 0.0 0.0 0.0 0.0 0.0 0.1 0.1 1.9 1.5 3.4 2.5 2.3 2.5 0.2 0.2 0.3 4.3 5.2 0.9 0.1 0.2 0.0 0.1 0.0 0.1 0.1 0.9 1.9 4.0 2.5 1.7 2.3 5.9 6.7 3.0 5.5 7.2 5.6 7.4 4.5 4.9
0.0 0.0 0.0 0.0 0.0 0.0 0.2 0.1 0.6 0.1 0.1 0.5 4.0 4.7 1.7 3.6 3.6 4.6 2.0 1.2 0.3 0.7 0.1 0.1 0.1 0.1 0.2 0.2 1.4 1.2 2.8 5.9 3.4 5.8 7.5 3.7 9.8 13.8 9.3 6.7 5.7 8.3 15.8 12.2
0.0 0.0 0.1 0.1 0.1 0.6 1.9 2.6 1.8 0.1 0.1 4.0 5.8 6.7 6.5 2.9 3.9 6.0 2.8 1.0 0.1 0.4 0.1 0.1 0.4 0.7 0.3 0.4 0.5 3.5 6.4 8.9 9.3 6.4 6.6 12.9 16.5 12.3 14.2 15.1 14.1 16.7 20.0 15.5
0.0 0.1 1.2 0.8 0.2 0.1 0.3 0.1 0.1 2.6 2.5 5.8 9.9 12.1 8.5 1.7 3.3 3.0 4.6 1.3 0.6 2.0 1.1 1.3 0.8 3.0 2.1 4.7 2.0 8.1 4.4 5.1 7.0 7.1 7.9 11.5 13.1 20.0 21.5 18.7 18.0 19.8 19.1 19.7
0.0 0.0 0.2 0.9 1.1 0.1 0.2 0.5 3.9 3.7 7.0 6.2 7.9 4.5 3.0 1.3 1.4 3.2 3.1 0.1 0.9 3.4 1.2 2.8 4.4 5.2 5.5 9.1 9.1 10.6 10.8 11.1 11.1 9.7 10.3 16.0 15.2 26.6 16.1 15.3 17.1 17.2 23.4 15.5
0.0 0.1 0.1 0.1 0.3 0.3 0.5 0.0 0.1 0.2 6.0 2.9 4.3 6.7 2.4 5.4 7.4 1.2 1.2 5.3 5.5 14.9 11.6 6.6 8.5 5.8 6.3 12.7 13.0 14.7 13.4 15.0 15.9 18.6 9.1 8.9 25.1 19.7 15.7 23.7 14.7 17.9 18.7 16.0
0.1 0.1 0.1 0.8 0.2 0.5 0.0 0.1 0.2 0.2 0.4 0.4 0.4 0.3 0.9 1.4 7.1 3.1 5.5 5.3 6.2 4.9 7.2 6.4 6.2 7.1 16.2 17.1 16.5 17.4 17.4 16.1 17.9 21.0 15.1 20.8 18.6 27.9 24.4 20.1 25.0 24.1 24.4 20.1
0.0 0.4 0.3 0.0 0.3 0.3 0.4 0.6 1.1 1.2 1.6 4.8 2.7 10.8 7.7 4.4 3.8 3.7 5.5 6.4 4.4 6.1 5.4 13.4 18.8 18.9 17.9 13.5 15.5 16.1 13.0 9.5 14.4 14.7 18.1 17.1 16.1 13.1 17.2 16.1 23.3 27.9 33.1 34.1
0.5 0.2 0.6 0.5 0.4 0.7 0.8 1.0 3.0 3.6 4.5 8.6 7.3 7.3 4.5 7.9 10.1 6.7 8.2 12.5 12.1 13.4 13.6 16.7 14.8 10.8 9.8 15.6 13.4 12.3 12.3 12.7 10.7 10.9 23.5 25.8 24.5 32.5 29.2 29.0 33.4 32.9 29.3 26.4

GFSNGP_prec_sndepth_045.txt.gz
Snowfall_Accumulation
0.0 0.0 0.0 0.0 0.0 0.0 0.0 0.0 0.2 0.0 0.0 0.0 0.0 0.0 0.0 0.0 0.0 0.0 0.0 0.0 0.0 0.0 0.0 0.0 0.0 0.0 0.0 0.0 0.0 0.0 0.0 0.0 0.0 0.0 0.0 0.0 0.0 0.0 0.0 0.0 0.0 0.0 0.0 0.0
0.0 0.0 0.0 0.0 0.0 0.0 0.0 0.0 0.0 0.0 0.0 0.0 0.0 0.0 0.0 0.0 0.0 0.0 0.0 0.0 0.0 0.0 0.0 0.0 0.0 0.0 0.0 0.0 0.0 0.0 0.0 0.0 0.0 0.0 0.0 0.0 0.0 0.0 0.0 0.0 0.0 0.0 0.0 0.0
0.1 0.0 0.0 0.9 0.0 0.0 0.0 0.0 0.0 0.1 0.0 0.0 0.0 0.0 0.0 0.0 0.0 0.0 0.0 0.0 0.0 0.0 0.0 0.0 0.0 0.0 0.0 0.0 0.0 0.0 0.0 0.0 0.0 0.0 0.0 0.0 0.0 0.0 0.0 0.0 0.0 0.0 0.0 0.0
1.3 0.7 2.7 0.0 0.0 0.0 0.0 0.0 0.0 0.0 0.0 0.0 0.0 0.0 0.0 0.0 0.0 0.0 0.0 0.0 0.0 0.0 0.0 0.0 0.0 0.0 0.0 0.0 0.0 0.0 0.0 0.0 0.0 0.0 0.0 0.0 0.0 0.0 0.0 0.0 0.0 0.0 0.0 0.0
3.4 0.5 0.0 0.0 0.0 0.0 0.0 0.0 0.0 0.0 0.0 0.0 0.0 0.0 0.0 0.0 0.0 0.0 0.0 0.0 0.0 0.0 0.0 0.0 0.0 0.0 0.0 0.0 0.0 0.0 0.0 0.0 0.0 0.0 0.0 0.0 0.0 0.0 0.0 0.0 0.0 0.0 0.0 0.0
1.1 1.1 4.2 0.0 0.0 0.0 0.0 0.2 0.0 0.0 0.0 0.0 0.0 0.3 0.0 0.0 0.0 0.0 0.0 0.0 0.0 0.0 0.0 0.0 0.0 0.0 0.0 0.0 0.0 0.0 0.0 0.0 0.0 0.0 0.0 0.0 0.0 0.0 0.0 0.0 0.0 0.0 0.0 0.0
1.3 2.3 0.6 0.0 0.0 0.0 0.9 0.1 0.0 0.0 0.0 0.0 0.0 0.0 0.0 0.0 0.0 0.0 0.0 0.0 0.0 0.0 0.0 0.0 0.0 0.0 0.0 0.0 0.0 0.0 0.0 0.0 0.0 0.0 0.0 0.0 0.0 0.0 0.0 0.0 0.0 0.1 0.2 0.1
1.3 2.4 3.2 0.0 0.0 0.1 0.1 0.0 0.0 0.0 0.0 0.0 0.0 0.0 0.0 0.0 0.0 0.0 0.0 0.0 0.0 0.0 0.0 0.0 0.0 0.0 0.0 0.0 0.0 0.0 0.0 0.0 0.0 0.0 0.0 0.0 0.0 0.0 0.0 0.0 0.0 0.1 2.4 0.7
0.1 0.5 0.0 0.0 0.0 0.0 0.0 0.0 0.0 0.0 0.0 0.0 0.0 0.0 0.0 0.0 0.0 0.0 0.0 0.0 0.0 0.0 0.0 0.0 0.0 0.0 0.0 0.0 0.0 0.0 0.0 0.0 0.0 0.0 0.0 0.0 0.0 0.0 0.0 0.0 0.5 0.3 0.9 1.7
0.0 0.0 0.0 0.0 0.0 0.0 0.0 0.0 0.0 0.0 0.0 0.0 0.0 0.0 0.0 0.0 0.0 0.0 0.0 0.0 0.0 0.0 0.0 0.0 0.0 0.0 0.0 0.0 0.0 0.0 0.0 0.0 0.0 0.0 0.0 0.0 0.0 0.0 0.0 0.5 1.0 1.0 1.4 1.1
0.0 0.0 0.0 0.0 0.0 0.0 0.0 0.0 0.0 0.0 0.0 0.0 0.0 0.0 0.0 0.0 0.0 0.0 0.0 0.0 0.0 0.0 0.0 0.0 0.0 0.0 0.0 0.0 0.0 0.0 0.0 0.0 0.0 0.1 0.0 0.0 0.0 0.0 0.4 0.2 0.8 1.1 1.0 1.3
0.3 0.0 0.0 0.0 0.0 0.0 0.0 0.0 0.0 0.0 0.0 0.0 0.0 0.0 0.0 0.0 0.0 0.0 0.0 0.0 0.0 0.0 0.0 0.0 0.0 0.0 0.0 0.0 0.0 0.0 0.0 0.1 0.3 0.5 0.4 0.0 0.0 0.0 nan nan nan nan nan 2.7
0.0 0.0 0.0 0.0 0.0 0.0 0.0 0.0 0.0 0.0 0.0 0.0 0.0 0.0 0.0 0.0 0.0 nan 0.0 0.0 0.0 0.0 0.0 0.0 0.0 0.0 0.0 0.0 0.0 0.1 0.0 0.0 0.5 0.6 0.7 0.7 0.8 0.9 1.5 0.8 nan nan nan nan
0.0 0.0 0.0 0.0 0.0 0.0 0.0 0.0 0.0 0.0 0.0 0.0 0.0 0.0 0.0 0.0 0.0 0.0 0.0 0.0 0.0 0.0 0.0 0.0 0.0 0.0 0.0 0.0 0.0 0.1 0.1 0.0 0.7 0.7 0.7 1.1 1.5 1.7 1.8 2.7 4.7 3.6 nan nan
0.0 0.0 0.0 0.0 0.0 0.0 0.0 0.0 0.0 0.0 0.0 0.1 0.0 0.0 0.0 0.0 0.0 0.0 0.0 0.0 0.0 0.0 0.0 0.0 0.0 0.0 0.0 0.0 0.0 0.0 0.2 0.5 1.1 1.8 2.2 2.2 2.6 2.7 2.6 3.1 3.2 2.8 2.1 0.9
0.0 0.0 0.0 0.0 0.0 0.0 0.0 0.0 0.0 0.2 0.1 0.0 0.0 0.0 0.0 0.0 0.0 0.0 0.0 0.0 0.3 0.3 0.0 3.4 0.6 0.0 0.0 0.0 0.0 0.0 0.2 0.0 0.6 1.5 2.0 2.3 2.3 2.9 2.6 3.1 2.9 3.5 3.2 3.1
0.0 0.0 0.0 0.0 0.0 0.0 0.0 0.0 0.0 0.0 0.0 0.0 0.0 0.1 0.0 0.1 0.1 0.1 0.1 0.2 1.5 2.0 1.2 0.6 0.3 0.0 0.0 0.0 0.0 0.3 0.4 0.6 0.0 1.1 1.5 2.0 2.7 2.9 2.7 3.6 4.2 3.6 6.3 10.2
0.0 0.0 0.0 0.0 0.0 0.1 0.1 0.0 0.0 0.0 0.0 0.0 0.6 2.9 3.8 3.3 0.3 0.3 0.5 0.8 1.8 1.9 0.3 0.2 0.1 0.0 0.1 0.0 0.0 0.3 0.9 1.1 1.5 2.4 2.1 3.6 2.7 2.6 3.9 3.6 3.5 4.1 5.5 5.0
0.0 0.0 0.0 0.0 0.0 0.0 0.0 0.0 0.1 0.1 1.9 1.5 3.4 2.5 2.3 2.5 0.2 0.2 0.3 4.3 5.2 0.9 0.1 0.2 0.0 0.1 0.0 0.1 0.1 0.9 1.9 4.0 2.5 1.7 2.3 5.9 6.8 3.2 6.2 7.4 5.7 7.5 4.5 4.9
0.0 0.0 0.0 0.0 0.0 0.0 0.1 0.1 0.6 0.1 0.1 0.5 4.0 4.7 1.7 3.6 3.6 4.6 2.0 1.2 0.3 0.7 0.1 0.1 0.1 0.1 0.1 0.2 1.4 1.1 2.8 5.9 3.4 5.8 7.5 4.0 9.9 13.9 9.5 6.9 6.0 8.4 15.8 12.4
0.0 0.0 0.1 0.1 0.1 0.6 1.9 2.6 1.8 0.1 0.1 4.0 5.8 6.7 6.5 2.9 3.9 6.0 2.8 1.0 0.1 0.4 0.1 0.1 0.4 0.7 0.3 0.4 0.5 3.6 6.4 9.1 9.4 6.5 6.8 13.4 17.8 14.4 14.6 15.3 14.2 16.7 20.1 15.6
0.0 0.1 1.2 0.8 0.2 0.1 0.3 0.1 0.1 2.6 2.5 5.8 9.9 12.1 8.5 1.7 3.3 3.0 4.6 1.3 0.6 2.0 1.1 1.3 0.9 3.0 2.1 4.7 2.1 8.1 4.5 5.2 7.2 7.3 8.3 12.3 13.8 20.6 22.0 18.9 18.1 19.7 19.0 19.7
0.0 0.0 0.2 0.9 1.1 0.1 0.2 0.5 3.9 3.7 7.0 6.2 7.9 4.5 3.0 1.3 1.4 3.2 3.1 0.1 0.9 3.4 1.2 2.9 4.4 5.2 5.5 9.1 9.1 10.6 10.8 11.1 11.1 9.8 10.5 16.3 15.6 26.8 16.3 15.5 17.2 17.3 23.4 15.5
0.0 0.1 0.0 0.1 0.3 0.3 0.5 0.0 0.1 0.2 6.0 2.9 4.3 6.7 2.4 5.4 7.4 1.2 1.2 5.3 5.5 14.9 11.6 6.6 8.5 5.8 6.3 12.7 13.0 14.7 13.4 15.1 15.9 18.6 9.2 9.0 25.4 19.9 15.9 23.8 14.8 18.0 18.7 16.0
0.1 0.1 0.1 0.8 0.2 0.5 0.0 0.0 0.2 0.2 0.3 0.4 0.4 0.3 0.9 1.4 7.1 3.1 5.5 5.3 6.2 4.9 7.2 6.4 6.3 7.1 16.2 17.1 16.5 17.4 17.4 16.1 17.9 21.0 15.3 21.0 18.8 28.1 24.6 20.3 25.1 24.2 24.4 20.0
0.0 0.3 0.3 0.0 0.3 0.3 0.4 0.6 1.1 1.2 1.6 4.8 2.7 10.8 7.7 4.5 3.8 3.7 5.5 6.4 4.4 6.1 5.4 13.4 18.8 18.9 17.9 13.4 15.5 16.1 13.0 9.5 14.4 14.8 18.1 17.2 16.3 13.2 17.5 16.3 23.4 28.0 33.0 34.0
0.5 0.2 0.6 0.5 0.4 0.7 0.8 1.0 3.0 3.6 4.5 8.6 7.3 7.3 4.5 7.9 10.1 6.7 8.2 12.5 12.1 13.4 13.6 16.7 14.8 10.8 9.8 15.7 13.4 12.3 12.3 12.7 10.7 11.1 23.5 25.8 24.5 32.4 29.3 29.1 33.4 32.9 29.2 26.4

GFSNGP_prec_sndepth_048.txt.gz
Snowfall_Accumulation
0.0 0.0 0.0 0.0 0.0 0.0 0.0 0.0 0.2 0.0 0.0 0.0 0.0 0.0 0.0 0.0 0.0 0.0 0.0 0.0 0.0 0.0 0.0 0.0 0.0 0.0 0.0 0.0 0.0 0.0 0.0 0.0 0.0 0.0 0.0 0.0 0.0 0.0 0.0 0.0 0.0 0.0 0.0 0.0
0.0 0.0 0.0 0.0 0.0 0.0 0.0 0.0 0.0 0.0 0.0 0.0 0.0 0.0 0.0 0.0 0.0 0.0 0.0 0.0 0.0 0.0 0.0 0.0 0.0 0.0 0.0 0.0 0.0 0.0 0.0 0.0 0.0 0.0 0.0 0.0 0.0 0.0 0.0 0.0 0.0 0.0 0.0 0.0
0.1 0.0 0.0 0.9 0.0 0.0 0.0 0.0 0.0 0.1 0.0 0.0 0.0 0.0 0.0 0.0 0.0 0.0 0.0 0.0 0.0 0.0 0.0 0.0 0.0 0.0 0.0 0.0 0.0 0.0 0.0 0.0 0.0 0.0 0.0 0.0 0.0 0.0 0.0 0.0 0.0 0.0 0.0 0.0
1.3 0.7 2.7 0.0 0.0 0.0 0.0 0.0 0.0 0.0 0.0 0.0 0.0 0.0 0.0 0.0 0.0 0.0 0.0 0.0 0.0 0.0 0.0 0.0 0.0 0.0 0.0 0.0 0.0 0.0 0.0 0.0 0.0 0.0 0.0 0.0 0.0 0.0 0.0 0.0 0.0 0.0 0.0 0.0
3.4 0.5 0.0 0.0 0.0 0.0 0.0 0.0 0.0 0.0 0.0 0.0 0.0 0.0 0.0 0.0 0.0 0.0 0.0 0.0 0.0 0.0 0.0 0.0 0.0 0.0 0.0 0.0 0.0 0.0 0.0 0.0 0.0 0.0 0.0 0.0 0.0 0.0 0.0 0.0 0.0 0.0 0.0 0.0
1.1 1.1 4.2 0.0 0.0 0.0 0.0 0.2 0.0 0.0 0.0 0.0 0.0 0.2 0.0 0.0 0.0 0.0 0.0 0.0 0.0 0.0 0.0 0.0 0.0 0.0 0.0 0.0 0.0 0.0 0.0 0.0 0.0 0.0 0.0 0.0 0.0 0.0 0.0 0.0 0.0 0.0 0.0 0.0
1.3 2.3 0.6 0.0 0.0 0.0 0.9 0.1 0.0 0.0 0.0 0.0 0.0 0.0 0.0 0.0 0.0 0.0 0.0 0.0 0.0 0.0 0.0 0.0 0.0 0.0 0.0 0.0 0.0 0.0 0.0 0.0 0.0 0.0 0.0 0.0 0.0 0.0 0.0 0.0 0.0 0.1 0.2 0.1
1.3 2.4 3.2 0.0 0.0 0.1 0.1 0.0 0.0 0.0 0.0 0.0 0.0 0.0 0.0 0.0 0.0 0.0 0.0 0.0 0.0 0.0 0.0 0.0 0.0 0.0 0.0 0.0 0.0 0.0 0.0 0.0 0.0 0.0 0.0 0.0 0.0 0.0 0.0 0.0 0.0 0.1 2.4 0.7
0.1 0.5 0.0 0.0 0.0 0.0 0.0 0.0 0.0 0.0 0.0 0.0 0.0 0.0 0.0 0.0 0.0 0.0 0.0 0.0 0.0 0.0 0.0 0.0 0.0 0.0 0.0 0.0 0.0 0.0 0.0 0.0 0.0 0.0 0.0 0.0 0.0 0.0 0.0 0.0 0.5 0.3 0.9 1.7
0.0 0.0 0.0 0.0 0.0 0.0 0.0 0.0 0.0 0.0 0.0 0.0 0.0 0.0 0.0 0.0 0.0 0.0 0.0 0.0 0.0 0.0 0.0 0.0 0.0 0.0 0.0 0.0 0.0 0.0 0.0 0.0 0.0 0.0 0.0 0.0 0.0 0.0 0.0 0.5 1.0 1.0 1.4 1.1
0.0 0.0 0.0 0.0 0.0 0.0 0.0 0.0 0.0 0.0 0.0 0.0 0.0 0.0 0.0 0.0 0.0 0.0 0.0 0.0 0.0 0.0 0.0 0.0 0.0 0.0 0.0 0.0 0.0 0.0 0.0 0.0 0.0 0.1 0.0 0.0 0.0 0.0 0.4 0.2 0.8 1.1 1.0 1.3
0.3 0.0 0.0 0.0 0.0 0.0 0.0 0.0 0.0 0.0 0.0 0.0 0.0 0.0 0.0 0.0 0.0 0.0 0.0 0.0 0.0 0.0 0.0 0.0 0.0 0.0 0.0 0.0 0.0 0.0 0.0 0.1 0.3 0.5 0.4 0.0 0.0 0.0 nan nan nan nan nan 2.7
0.0 0.0 0.0 0.0 0.0 0.0 0.0 0.0 0.0 0.0 0.0 0.0 0.0 0.0 0.0 0.0 0.0 nan 0.0 0.0 0.0 0.0 0.0 0.0 0.0 0.0 0.0 0.0 0.0 0.1 0.0 0.0 0.5 0.6 0.7 0.7 0.8 0.9 1.5 0.8 nan nan nan nan
0.0 0.0 0.0 0.0 0.0 0.0 0.0 0.0 0.0 0.0 0.0 0.0 0.0 0.0 0.0 0.0 0.0 0.0 0.0 0.0 0.0 0.0 0.0 0.0 0.0 0.0 0.0 0.0 0.0 0.1 0.1 0.0 0.7 0.7 0.7 1.1 1.5 1.7 1.8 2.7 4.7 3.6 nan nan
0.0 0.0 0.0 0.0 0.0 0.0 0.0 0.0 0.0 0.0 0.0 0.1 0.0 0.0 0.0 0.0 0.0 0.0 0.0 0.0 0.0 0.0 0.0 0.0 0.0 0.0 0.0 0.0 0.0 0.0 0.2 0.6 1.1 1.9 2.2 2.2 2.6 2.7 2.6 3.2 3.3 2.9 2.2 1.0
0.0 0.0 0.0 0.0 0.0 0.0 0.0 0.0 0.0 0.2 0.1 0.0 0.0 0.0 0.0 0.0 0.0 0.0 0.0 0.0 0.3 0.3 0.0 3.4 0.6 0.0 0.0 0.0 0.0 0.0 0.2 0.0 0.6 1.5 2.0 2.3 2.3 3.0 2.7 3.2 3.0 3.5 3.3 3.2
0.0 0.0 0.0 0.0 0.0 0.0 0.0 0.0 0.0 0.0 0.0 0.0 0.0 0.1 0.0 0.1 0.1 0.1 0.1 0.2 1.5 2.0 1.2 0.6 0.3 0.0 0.0 0.0 0.0 0.3 0.4 0.6 0.0 1.1 1.5 2.0 2.8 3.0 2.8 3.8 4.4 3.9 6.5 10.4
0.0 0.0 0.0 0.0 0.0 0.0 0.1 0.0 0.0 0.0 0.0 0.0 0.6 2.9 3.8 3.3 0.3 0.3 0.5 0.8 1.8 1.9 0.3 0.2 0.1 0.0 0.1 0.0 0.0 0.3 0.9 1.1 1.5 2.4 2.1 3.7 2.8 2.6 3.9 3.7 3.7 4.3 5.8 5.3
0.0 0.0 0.0 0.0 0.0 0.0 0.0 0.0 0.1 0.1 1.9 1.5 3.4 2.5 2.3 2.5 0.2 0.2 0.3 4.3 5.2 0.9 0.1 0.1 0.0 0.1 0.0 0.1 0.1 0.9 1.9 4.0 2.5 1.7 2.3 5.9 6.9 3.3 6.4 8.0 6.2 7.8 5.1 5.2
0.0 0.0 0.0 0.0 0.0 0.0 0.1 0.1 0.6 0.1 0.1 0.5 4.0 4.7 1.7 3.6 3.6 4.6 2.0 1.2 0.3 0.7 0.1 0.1 0.1 0.1 0.1 0.2 1.4 1.2 2.8 6.0 3.4 5.8 7.6 4.1 10.1 14.3 9.8 7.3 8.3 9.7 16.5 12.6
0.0 0.0 0.1 0.1 0.1 0.6 1.9 2.6 1.8 0.1 0.1 4.0 5.8 6.7 6.5 2.9 3.9 6.0 2.8 1.0 0.2 0.4 0.1 0.1 0.4 0.7 0.3 0.4 0.5 3.6 6.5 9.1 9.4 6.6 6.9 13.5 17.9 14.5 14.8 15.6 14.6 17.1 20.3 15.8
0.0 0.1 1.2 0.8 0.2 0.1 0.3 0.1 0.1 2.6 2.5 5.8 9.9 12.1 8.5 1.7 3.3 3.1 4.6 1.3 0.6 2.0 1.1 1.3 0.9 3.0 2.1 4.7 2.1 8.1 4.5 5.3 7.2 7.3 8.3 12.4 13.8 20.6 22.0 19.1 18.3 20.0 19.3 19.9
0.0 0.0 0.2 0.9 1.1 0.1 0.2 0.5 3.9 3.7 7.0 6.2 7.9 4.5 3.0 1.3 1.4 3.2 3.1 0.1 0.9 3.4 1.2 2.9 4.4 5.2 5.5 9.1 9.1 10.6 10.8 11.2 11.2 9.8 10.5 16.3 15.7 26.8 16.4 15.6 17.3 17.4 23.5 15.7
0.0 0.0 0.0 0.1 0.3 0.3 0.5 0.0 0.1 0.2 6.0 2.9 4.3 6.7 2.4 5.4 7.4 1.2 1.2 5.3 5.5 14.9 11.6 6.6 8.5 5.8 6.3 12.7 13.0 14.7 13.4 15.1 15.9 18.6 9.2 9.0 25.3 19.9 15.9 23.9 14.9 18.1 18.8 16.1
0.1 0.1 0.1 0.8 0.2 0.5 0.0 0.0 0.2 0.2 0.3 0.4 0.4 0.3 0.9 1.4 7.1 3.1 5.6 5.3 6.2 4.9 7.2 6.4 6.3 7.1 16.2 17.1 16.5 17.4 17.4 16.1 17.9 21.1 15.3 20.9 18.8 28.0 24.5 20.3 25.1 24.3 24.5 20.1
0.0 0.3 0.3 0.0 0.3 0.3 0.4 0.6 1.1 1.2 1.6 4.8 2.7 10.8 7.7 4.5 3.8 3.7 5.5 6.4 4.4 6.1 5.4 13.5 18.8 18.9 17.9 13.5 15.5 16.1 13.0 9.5 14.4 14.8 18.1 17.1 16.3 13.2 17.5 16.3 23.4 28.0 33.0 34.1
0.5 0.2 0.6 0.5 0.4 0.7 0.8 1.0 3.0 3.6 4.5 8.6 7.3 7.3 4.5 7.9 10.1 6.7 8.2 12.5 12.1 13.4 13.6 16.7 14.8 10.8 9.8 15.7 13.4 12.3 12.3 12.7 10.7 11.1 23.4 25.7 24.4 32.3 29.2 29.0 33.2 32.8 29.1 26.3

GFSNGP_prec_sndepth_051.txt.gz
Snowfall_Accumulation
0.0 0.0 0.0 0.0 0.0 0.0 0.0 0.0 0.2 0.0 0.0 0.0 0.0 0.0 0.0 0.0 0.0 0.0 0.0 0.0 0.0 0.0 0.0 0.0 0.0 0.0 0.0 0.0 0.0 0.0 0.0 0.0 0.0 0.0 0.0 0.0 0.0 0.0 0.0 0.0 0.0 0.0 0.0 0.0
0.0 0.0 0.0 0.0 0.0 0.0 0.0 0.0 0.0 0.0 0.0 0.0 0.0 0.0 0.0 0.0 0.0 0.0 0.0 0.0 0.0 0.0 0.0 0.0 0.0 0.0 0.0 0.0 0.0 0.0 0.0 0.0 0.0 0.0 0.0 0.0 0.0 0.0 0.0 0.0 0.0 0.0 0.0 0.0
0.1 0.0 0.0 0.9 0.0 0.0 0.0 0.0 0.0 0.1 0.0 0.0 0.0 0.0 0.0 0.0 0.0 0.0 0.0 0.0 0.0 0.0 0.0 0.0 0.0 0.0 0.0 0.0 0.0 0.0 0.0 0.0 0.0 0.0 0.0 0.0 0.0 0.0 0.0 0.0 0.0 0.0 0.0 0.0
1.3 0.7 2.7 0.0 0.0 0.0 0.0 0.0 0.0 0.0 0.0 0.0 0.0 0.0 0.0 0.0 0.0 0.0 0.0 0.0 0.0 0.0 0.0 0.0 0.0 0.0 0.0 0.0 0.0 0.0 0.0 0.0 0.0 0.0 0.0 0.0 0.0 0.0 0.0 0.0 0.0 0.0 0.0 0.0
3.4 0.5 0.0 0.0 0.0 0.0 0.0 0.0 0.0 0.0 0.0 0.0 0.0 0.0 0.0 0.0 0.0 0.0 0.0 0.0 0.0 0.0 0.0 0.0 0.0 0.0 0.0 0.0 0.0 0.0 0.0 0.0 0.0 0.0 0.0 0.0 0.0 0.0 0.0 0.0 0.0 0.0 0.0 0.0
1.2 1.1 4.2 0.0 0.0 0.0 0.0 0.2 0.0 0.0 0.0 0.0 0.0 0.2 0.0 0.0 0.0 0.0 0.0 0.0 0.0 0.0 0.0 0.0 0.0 0.0 0.0 0.0 0.0 0.0 0.0 0.0 0.0 0.0 0.0 0.0 0.0 0.0 0.0 0.0 0.0 0.0 0.0 0.0
1.4 2.3 0.6 0.0 0.0 0.0 0.9 0.1 0.0 0.0 0.0 0.0 0.0 0.0 0.0 0.0 0.0 0.0 0.0 0.0 0.0 0.0 0.0 0.0 0.0 0.0 0.0 0.0 0.0 0.0 0.0 0.0 0.0 0.0 0.0 0.0 0.0 0.0 0.0 0.0 0.0 0.1 0.2 0.1
1.3 2.4 3.2 0.0 0.0 0.1 0.1 0.0 0.0 0.0 0.0 0.0 0.0 0.0 0.0 0.0 0.0 0.0 0.0 0.0 0.0 0.0 0.0 0.0 0.0 0.0 0.0 0.0 0.0 0.0 0.0 0.0 0.0 0.0 0.0 0.0 0.0 0.0 0.0 0.0 0.0 0.1 2.4 0.7
0.1 0.5 0.0 0.0 0.0 0.0 0.0 0.0 0.0 0.0 0.0 0.0 0.0 0.0 0.0 0.0 0.0 0.0 0.0 0.0 0.0 0.0 0.0 0.0 0.0 0.0 0.0 0.0 0.0 0.0 0.0 0.0 0.0 0.0 0.0 0.0 0.0 0.0 0.0 0.0 0.5 0.3 0.9 1.7
0.0 0.0 0.0 0.0 0.0 0.0 0.0 0.0 0.0 0.0 0.0 0.0 0.0 0.0 0.0 0.0 0.0 0.0 0.0 0.0 0.0 0.0 0.0 0.0 0.0 0.0 0.0 0.0 0.0 0.0 0.0 0.0 0.0 0.0 0.0 0.0 0.0 0.0 0.0 0.5 1.0 1.0 1.4 1.1
0.0 0.0 0.0 0.0 0.0 0.0 0.0 0.0 0.0 0.0 0.0 0.0 0.0 0.0 0.0 0.0 0.0 0.0 0.0 0.0 0.0 0.0 0.0 0.0 0.0 0.0 0.0 0.0 0.0 0.0 0.0 0.0 0.0 0.1 0.0 0.0 0.0 0.0 0.4 0.2 0.8 1.1 1.0 1.3
0.3 0.0 0.0 0.0 0.0 0.0 0.0 0.0 0.0 0.0 0.0 0.0 0.0 0.0 0.0 0.0 0.0 0.0 0.0 0.0 0.0 0.0 0.0 0.0 0.0 0.0 0.0 0.0 0.0 0.0 0.0 0.0 0.3 0.5 0.4 0.0 0.0 0.0 nan nan nan nan nan 2.7
0.0 0.0 0.0 0.0 0.0 0.0 0.0 0.0 0.0 0.0 0.0 0.0 0.0 0.0 0.0 0.0 0.0 nan 0.0 0.0 0.0 0.0 0.0 0.0 0.0 0.0 0.0 0.0 0.0 0.1 0.0 0.0 0.5 0.6 0.7 0.7 0.8 0.9 1.5 0.8 nan nan nan nan
0.0 0.0 0.0 0.0 0.0 0.0 0.0 0.0 0.0 0.0 0.0 0.0 0.0 0.0 0.0 0.0 0.0 0.0 0.0 0.0 0.0 0.0 0.0 0.0 0.0 0.0 0.0 0.0 0.0 0.1 0.1 0.0 0.7 0.7 0.7 1.1 1.6 1.7 1.8 2.8 4.7 3.6 nan nan
0.0 0.0 0.0 0.0 0.0 0.0 0.0 0.0 0.0 0.0 0.0 0.1 0.0 0.0 0.0 0.0 0.0 0.0 0.0 0.0 0.0 0.0 0.0 0.0 0.0 0.0 0.0 0.0 0.0 0.0 0.2 0.6 1.1 1.8 2.2 2.2 2.6 2.7 2.6 3.2 3.3 2.9 2.1 0.9
0.0 0.0 0.0 0.0 0.0 0.0 0.0 0.0 0.0 0.2 0.1 0.0 0.0 0.0 0.0 0.0 0.0 0.0 0.0 0.0 0.3 0.3 0.0 3.4 0.6 0.0 0.0 0.0 0.0 0.0 0.2 0.0 0.6 1.5 2.0 2.3 2.3 3.0 2.7 3.2 3.0 3.6 3.3 3.2
0.0 0.0 0.0 0.0 0.0 0.0 0.0 0.0 0.0 0.0 0.0 0.0 0.0 0.0 0.0 0.1 0.1 0.1 0.1 0.2 1.5 2.0 1.2 0.6 0.3 0.0 0.0 0.0 0.0 0.2 0.4 0.6 0.0 1.1 1.5 2.0 2.8 3.0 2.8 4.0 4.5 3.9 6.5 10.4
0.0 0.0 0.0 0.0 0.0 0.0 0.1 0.0 0.0 0.0 0.0 0.0 0.6 2.9 3.8 3.3 0.3 0.3 0.5 0.8 1.8 1.9 0.3 0.2 0.1 0.0 0.1 0.0 0.0 0.3 0.9 1.1 1.5 2.4 2.1 3.7 2.8 2.6 4.1 3.9 3.7 4.4 6.0 5.7
0.0 0.0 0.0 0.0 0.0 0.0 0.0 0.0 0.1 0.1 1.9 1.5 3.4 2.5 2.3 2.5 0.2 0.2 0.3 4.3 5.2 0.8 0.1 0.2 0.0 0.1 0.0 0.1 0.1 0.9 1.9 4.1 2.5 1.7 2.3 5.9 6.9 3.3 6.5 8.1 6.3 8.2 5.5 5.8
0.0 0.0 0.0 0.0 0.0 0.0 0.1 0.1 0.6 0.1 0.1 0.4 4.0 4.7 1.7 3.6 3.6 4.6 2.0 1.2 0.3 0.7 0.1 0.1 0.1 0.1 0.1 0.2 1.4 1.2 2.8 6.0 3.4 5.8 7.6 4.2 10.1 14.3 9.8 7.3 8.3 9.9 16.9 13.3
0.0 0.0 0.1 0.1 0.1 0.6 1.9 2.6 1.8 0.1 0.1 4.0 5.8 6.7 6.5 2.9 3.9 6.0 2.8 1.0 0.2 0.4 0.1 0.1 0.4 0.7 0.3 0.4 0.5 3.6 6.5 9.1 9.4 6.6 6.9 13.5 17.9 14.5 14.8 15.6 14.6 17.1 20.4 15.9
0.1 0.2 1.4 0.7 0.2 0.1 0.3 0.1 0.1 2.5 2.5 5.8 9.8 12.1 8.5 1.7 3.3 3.1 4.6 1.3 0.6 2.0 1.1 1.3 0.9 3.0 2.1 4.7 2.1 8.1 4.5 5.3 7.2 7.3 8.3 12.4 13.8 20.6 22.0 19.1 18.3 19.9 19.3 19.9
0.1 0.0 0.2 0.9 1.1 0.1 0.2 0.5 3.9 3.7 7.0 6.2 7.9 4.5 3.0 1.3 1.4 3.2 3.2 0.1 0.9 3.4 1.2 2.9 4.4 5.2 5.5 9.1 9.1 10.6 10.8 11.2 11.2 9.8 10.5 16.3 15.7 26.8 16.4 15.6 17.3 17.4 23.5 15.7
0.0 0.0 0.0 0.1 0.3 0.3 0.5 0.0 0.1 0.2 6.0 2.9 4.3 6.7 2.4 5.4 7.4 1.2 1.2 5.3 5.5 14.9 11.6 6.7 8.5 5.8 6.3 12.7 13.0 14.7 13.4 15.1 15.9 18.6 9.2 9.0 25.3 19.8 15.9 23.8 14.9 18.1 18.8 16.1
0.2 0.1 0.1 0.7 0.2 0.5 0.0 0.0 0.2 0.2 0.3 0.4 0.4 0.3 0.9 1.4 7.1 3.1 5.6 5.3 6.2 4.9 7.3 6.4 6.3 7.1 16.2 17.1 16.5 17.4 17.4 16.1 17.9 21.1 15.3 20.9 18.8 28.0 24.5 20.3 25.1 24.3 24.4 20.1
0.1 0.4 0.3 0.0 0.2 0.3 0.4 0.6 1.1 1.2 1.6 4.8 2.7 10.8 7.8 4.6 3.8 3.7 5.5 6.4 4.4 6.1 5.4 13.5 18.8 18.9 17.9 13.5 15.5 16.1 13.0 9.5 14.4 14.8 18.0 17.1 16.3 13.2 17.4 16.3 23.4 27.9 32.9 34.0
0.6 0.2 0.6 0.5 0.4 0.7 0.8 1.0 3.0 3.6 4.5 8.6 7.3 7.3 4.5 7.9 10.2 6.7 8.2 12.5 12.1 13.4 13.6 16.7 14.8 10.8 9.8 15.7 13.4 12.3 12.3 12.7 10.7 11.1 23.4 25.7 24.4 32.2 29.1 29.0 33.1 32.7 29.0 26.2